Time,TemperatureF,DewpointF,PressureIn,WindDirection,WindDirectionDegrees,WindSpeedMPH,WindSpeedGustMPH,Humidity,HourlyPrecipIn,Conditions,Clouds,dailyrainin,SolarRadiationWatts/m^2,SoftwareType,DateUTC
2013-01-24 00:00:00,62.4,35.8,30.08,SE,138,6.0,6.0,37,0.00,,,0.00,1,WeatherHawk,2013-01-24 07:00:00,
2013-01-24 00:05:00,62.4,35.1,30.09,SE,134,5.0,6.0,36,0.00,,,0.00,0,WeatherHawk,2013-01-24 07:05:00,
2013-01-24 00:07:00,62.2,35.0,30.09,SE,125,6.0,6.0,36,0.00,,,0.00,0,WeatherHawk,2013-01-24 07:07:00,
2013-01-24 00:08:00,62.2,35.0,30.09,SE,130,6.0,6.0,36,0.00,,,0.00,0,WeatherHawk,2013-01-24 07:08:00,
2013-01-24 00:13:00,62.2,34.2,30.08,SE,129,6.0,7.0,35,0.00,,,0.00,0,WeatherHawk,2013-01-24 07:13:00,
2013-01-24 00:14:00,62.2,34.2,30.08,SE,124,5.0,7.0,35,0.00,,,0.00,0,WeatherHawk,2013-01-24 07:14:00,
2013-01-24 00:15:00,62.2,33.5,30.08,ESE,118,5.0,7.0,34,0.00,,,0.00,0,WeatherHawk,2013-01-24 07:15:00,
2013-01-24 00:18:00,62.6,32.3,30.08,ESE,123,4.0,7.0,32,0.00,,,0.00,0,WeatherHawk,2013-01-24 07:18:00,
2013-01-24 00:19:00,62.6,32.3,30.08,SE,138,5.0,0.0,32,0.00,,,0.00,0,WeatherHawk,2013-01-24 07:19:00,
2013-01-24 00:23:00,63.0,32.6,30.09,SE,138,6.0,6.0,32,0.00,,,0.00,0,WeatherHawk,2013-01-24 07:23:00,
2013-01-24 00:25:00,62.8,32.5,30.09,SSE,149,6.0,6.0,32,0.00,,,0.00,0,WeatherHawk,2013-01-24 07:25:00,
2013-01-24 00:28:00,62.8,32.5,30.09,SSE,150,6.0,6.0,32,0.00,,,0.00,1,WeatherHawk,2013-01-24 07:28:00,
2013-01-24 00:30:00,62.8,32.5,30.08,SE,142,6.0,7.0,32,0.00,,,0.00,0,WeatherHawk,2013-01-24 07:30:00,
2013-01-24 00:33:00,62.8,32.5,30.08,SE,131,6.0,7.0,32,0.00,,,0.00,0,WeatherHawk,2013-01-24 07:33:00,
2013-01-24 00:34:00,62.8,32.5,30.08,SE,141,5.0,7.0,32,0.00,,,0.00,0,WeatherHawk,2013-01-24 07:34:00,
2013-01-24 00:35:00,62.8,32.5,30.09,SE,142,5.0,7.0,32,0.00,,,0.00,0,WeatherHawk,2013-01-24 07:35:00,
2013-01-24 00:38:00,62.8,32.5,30.09,SE,146,6.0,-999.0,32,0.00,,,0.00,0,WeatherHawk,2013-01-24 07:38:00,
2013-01-24 00:40:00,62.8,31.7,30.09,ESE,121,7.0,7.0,31,0.00,,,0.00,0,WeatherHawk,2013-01-24 07:40:00,
2013-01-24 00:42:00,63.0,31.9,30.09,ESE,113,6.0,7.0,31,0.00,,,0.00,0,WeatherHawk,2013-01-24 07:42:00,
2013-01-24 00:43:00,63.0,31.0,30.09,ESE,114,8.0,-999.0,30,0.00,,,0.00,0,WeatherHawk,2013-01-24 07:43:00,
2013-01-24 00:45:00,63.3,31.4,30.09,ESE,119,8.0,8.0,30,0.00,,,0.00,0,WeatherHawk,2013-01-24 07:45:00,
2013-01-24 00:48:00,63.3,31.4,30.08,SE,127,7.0,7.0,30,0.00,,,0.00,0,WeatherHawk,2013-01-24 07:48:00,
2013-01-24 00:53:00,63.0,31.9,30.08,ESE,120,6.0,8.0,31,0.00,,,0.00,0,WeatherHawk,2013-01-24 07:53:00,
2013-01-24 00:54:00,63.0,31.9,30.08,SE,129,6.0,8.0,31,0.00,,,0.00,0,WeatherHawk,2013-01-24 07:54:00,
2013-01-24 00:55:00,63.0,31.9,30.08,SE,131,8.0,8.0,31,0.00,,,0.00,0,WeatherHawk,2013-01-24 07:55:00,
2013-01-24 00:57:00,63.0,32.6,30.09,SE,136,7.0,8.0,32,0.00,,,0.00,0,WeatherHawk,2013-01-24 07:57:00,
2013-01-24 01:00:00,62.6,32.3,30.09,SE,145,7.0,0.0,32,0.00,,,0.00,0,WeatherHawk,2013-01-24 08:00:00,
2013-01-24 01:03:00,62.6,32.3,30.09,SE,143,8.0,-999.0,32,0.00,,,0.00,0,WeatherHawk,2013-01-24 08:03:00,
2013-01-24 01:07:00,62.2,32.8,30.09,SSE,148,7.0,0.0,33,0.00,,,0.00,0,WeatherHawk,2013-01-24 08:07:00,
2013-01-24 01:08:00,62.2,32.8,30.09,SSE,148,7.0,0.0,33,0.00,,,0.00,0,WeatherHawk,2013-01-24 08:08:00,
2013-01-24 01:10:00,62.1,32.6,30.09,SE,138,8.0,9.0,33,0.00,,,0.00,0,WeatherHawk,2013-01-24 08:10:00,
2013-01-24 01:13:00,62.1,32.6,30.09,SE,134,7.0,-999.0,33,0.00,,,0.00,0,WeatherHawk,2013-01-24 08:13:00,
2013-01-24 01:16:00,61.9,33.2,30.09,SE,132,7.0,9.0,34,0.00,,,0.00,0,WeatherHawk,2013-01-24 08:16:00,
2013-01-24 01:18:00,61.9,33.2,30.08,SE,144,7.0,9.0,34,0.00,,,0.00,0,WeatherHawk,2013-01-24 08:18:00,
2013-01-24 01:19:00,61.9,33.2,30.08,SE,143,8.0,9.0,34,0.00,,,0.00,0,WeatherHawk,2013-01-24 08:19:00,
2013-01-24 01:22:00,62.1,33.4,30.08,SE,139,5.0,9.0,34,0.00,,,0.00,0,WeatherHawk,2013-01-24 08:22:00,
2013-01-24 01:24:00,62.1,33.4,30.08,SE,134,6.0,9.0,34,0.00,,,0.00,0,WeatherHawk,2013-01-24 08:24:00,
2013-01-24 01:26:00,62.1,33.4,30.08,SE,127,5.0,9.0,34,0.00,,,0.00,0,WeatherHawk,2013-01-24 08:26:00,
2013-01-24 01:27:00,62.1,33.4,30.08,SE,133,6.0,9.0,34,0.00,,,0.00,0,WeatherHawk,2013-01-24 08:27:00,
2013-01-24 01:28:00,62.1,33.4,30.08,SE,131,6.0,-999.0,34,0.00,,,0.00,0,WeatherHawk,2013-01-24 08:28:00,
2013-01-24 01:33:00,62.1,33.4,30.08,SE,131,7.0,8.0,34,0.00,,,0.00,0,WeatherHawk,2013-01-24 08:33:00,
2013-01-24 01:35:00,62.1,33.4,30.08,SE,130,7.0,8.0,34,0.00,,,0.00,0,WeatherHawk,2013-01-24 08:35:00,
2013-01-24 01:36:00,62.2,33.5,30.08,ESE,119,6.0,8.0,34,0.00,,,0.00,0,WeatherHawk,2013-01-24 08:36:00,
2013-01-24 01:37:00,62.2,33.5,30.08,SE,127,6.0,8.0,34,0.00,,,0.00,0,WeatherHawk,2013-01-24 08:37:00,
2013-01-24 01:43:00,62.4,32.9,30.08,ESE,123,5.0,0.0,33,0.00,,,0.00,0,WeatherHawk,2013-01-24 08:43:00,
2013-01-24 01:44:00,62.4,32.9,30.08,SE,124,7.0,0.0,33,0.00,,,0.00,0,WeatherHawk,2013-01-24 08:44:00,
2013-01-24 01:48:00,62.4,32.9,30.08,ESE,114,6.0,0.0,33,0.00,,,0.00,0,WeatherHawk,2013-01-24 08:48:00,
2013-01-24 01:49:00,62.4,33.7,30.08,ESE,120,7.0,8.0,34,0.00,,,0.00,0,WeatherHawk,2013-01-24 08:49:00,
2013-01-24 01:53:00,62.4,33.7,30.08,SE,124,8.0,8.0,34,0.00,,,0.00,0,WeatherHawk,2013-01-24 08:53:00,
2013-01-24 01:55:00,62.6,33.8,30.07,ESE,119,5.0,8.0,34,0.00,,,0.00,0,WeatherHawk,2013-01-24 08:55:00,
2013-01-24 01:58:00,62.6,33.8,30.07,ESE,112,7.0,-999.0,34,0.00,,,0.00,0,WeatherHawk,2013-01-24 08:58:00,
2013-01-24 02:02:00,63.0,32.6,30.08,SE,129,11.0,0.0,32,0.00,,,0.00,0,WeatherHawk,2013-01-24 09:02:00,
2013-01-24 02:03:00,63.0,32.6,30.08,SE,127,11.0,0.0,32,0.00,,,0.00,0,WeatherHawk,2013-01-24 09:03:00,
2013-01-24 02:06:00,63.1,32.8,30.08,ESE,122,10.0,0.0,32,0.00,,,0.00,0,WeatherHawk,2013-01-24 09:06:00,
2013-01-24 02:08:00,63.3,33.0,30.08,ESE,122,9.0,0.0,32,0.00,,,0.00,0,WeatherHawk,2013-01-24 09:08:00,
2013-01-24 02:12:00,63.7,32.5,30.08,SE,125,9.0,12.0,31,0.00,,,0.00,0,WeatherHawk,2013-01-24 09:12:00,
2013-01-24 02:13:00,63.7,32.5,30.08,SE,125,9.0,12.0,31,0.00,,,0.00,0,WeatherHawk,2013-01-24 09:13:00,
2013-01-24 02:16:00,63.7,32.5,30.08,SE,132,6.0,12.0,31,0.00,,,0.00,0,WeatherHawk,2013-01-24 09:16:00,
2013-01-24 02:18:00,63.5,32.3,30.08,SE,134,6.0,12.0,31,0.00,,,0.00,0,WeatherHawk,2013-01-24 09:18:00,
2013-01-24 02:19:00,63.5,32.3,30.08,SE,139,5.0,13.0,31,0.00,,,0.00,0,WeatherHawk,2013-01-24 09:19:00,
2013-01-24 02:22:00,63.3,32.2,30.08,SE,145,6.0,13.0,31,0.00,,,0.00,0,WeatherHawk,2013-01-24 09:22:00,
2013-01-24 02:23:00,63.3,32.2,30.08,SE,145,6.0,-999.0,31,0.00,,,0.00,0,WeatherHawk,2013-01-24 09:23:00,
2013-01-24 02:24:00,63.3,32.2,30.09,SE,144,6.0,13.0,31,0.00,,,0.00,1,WeatherHawk,2013-01-24 09:24:00,
2013-01-24 02:27:00,63.1,32.8,30.09,SE,138,7.0,13.0,32,0.00,,,0.00,0,WeatherHawk,2013-01-24 09:27:00,
2013-01-24 02:28:00,63.1,32.8,30.09,SE,138,7.0,-999.0,32,0.00,,,0.00,0,WeatherHawk,2013-01-24 09:28:00,
2013-01-24 02:30:00,63.1,32.8,30.09,SE,137,6.0,7.0,32,0.00,,,0.00,0,WeatherHawk,2013-01-24 09:30:00,
2013-01-24 02:32:00,63.1,32.8,30.09,SE,131,9.0,9.0,32,0.00,,,0.00,0,WeatherHawk,2013-01-24 09:32:00,
2013-01-24 02:35:00,63.1,32.8,30.09,SE,142,9.0,9.0,32,0.00,,,0.00,0,WeatherHawk,2013-01-24 09:35:00,
2013-01-24 02:38:00,63.1,32.8,30.09,SE,134,7.0,-999.0,32,0.00,,,0.00,0,WeatherHawk,2013-01-24 09:38:00,
2013-01-24 02:39:00,63.1,32.8,30.09,SE,141,10.0,0.0,32,0.00,,,0.00,0,WeatherHawk,2013-01-24 09:39:00,
2013-01-24 02:43:00,63.1,33.6,30.09,SE,145,8.0,10.0,33,0.00,,,0.00,1,WeatherHawk,2013-01-24 09:43:00,
2013-01-24 02:45:00,63.3,33.7,30.10,SE,145,8.0,10.0,33,0.00,,,0.00,0,WeatherHawk,2013-01-24 09:45:00,
2013-01-24 02:46:00,63.5,33.1,30.10,SSE,151,9.0,10.0,32,0.00,,,0.00,0,WeatherHawk,2013-01-24 09:46:00,
2013-01-24 02:48:00,63.5,33.1,30.10,SSE,154,9.0,10.0,32,0.00,,,0.00,0,WeatherHawk,2013-01-24 09:48:00,
2013-01-24 02:50:00,63.5,33.9,30.10,SSE,154,10.0,0.0,33,0.00,,,0.00,0,WeatherHawk,2013-01-24 09:50:00,
2013-01-24 02:51:00,63.5,33.9,30.10,SSE,157,8.0,0.0,33,0.00,,,0.00,0,WeatherHawk,2013-01-24 09:51:00,
2013-01-24 02:53:00,63.7,34.0,30.10,SSE,151,9.0,0.0,33,0.00,,,0.00,0,WeatherHawk,2013-01-24 09:53:00,
2013-01-24 02:58:00,63.9,33.4,30.10,SSE,151,10.0,-999.0,32,0.00,,,0.00,0,WeatherHawk,2013-01-24 09:58:00,
2013-01-24 03:00:00,64.2,33.7,30.10,SSE,150,7.0,10.0,32,0.00,,,0.00,0,WeatherHawk,2013-01-24 10:00:00,
2013-01-24 03:03:00,64.6,34.1,30.10,SSE,161,7.0,-999.0,32,0.00,,,0.00,0,WeatherHawk,2013-01-24 10:03:00,
2013-01-24 03:05:00,64.6,34.1,30.10,SSE,161,6.0,10.0,32,0.00,,,0.00,0,WeatherHawk,2013-01-24 10:05:00,
2013-01-24 03:07:00,64.6,34.1,30.10,South,176,6.0,10.0,32,0.00,,,0.00,0,WeatherHawk,2013-01-24 10:07:00,
2013-01-24 03:08:00,64.6,34.1,30.10,South,176,6.0,-999.0,32,0.00,,,0.00,0,WeatherHawk,2013-01-24 10:08:00,
2013-01-24 03:13:00,64.6,34.1,30.10,SSE,155,8.0,10.0,32,0.00,,,0.00,0,WeatherHawk,2013-01-24 10:13:00,
2013-01-24 03:14:00,64.6,34.1,30.10,SSE,151,7.0,10.0,32,0.00,,,0.00,0,WeatherHawk,2013-01-24 10:14:00,
2013-01-24 03:17:00,64.6,34.8,30.11,SSE,160,7.0,10.0,33,0.00,,,0.00,0,WeatherHawk,2013-01-24 10:17:00,
2013-01-24 03:18:00,64.6,34.8,30.11,SSE,160,7.0,10.0,33,0.00,,,0.00,0,WeatherHawk,2013-01-24 10:18:00,
2013-01-24 03:21:00,64.2,34.5,30.11,SSE,150,5.0,0.0,33,0.00,,,0.00,0,WeatherHawk,2013-01-24 10:21:00,
2013-01-24 03:22:00,64.0,34.4,30.11,SSE,150,5.0,0.0,33,0.00,,,0.00,0,WeatherHawk,2013-01-24 10:22:00,
2013-01-24 03:23:00,64.0,34.4,30.11,SSE,150,5.0,0.0,33,0.00,,,0.00,0,WeatherHawk,2013-01-24 10:23:00,
2013-01-24 03:27:00,64.0,34.4,30.11,SE,145,6.0,0.0,33,0.00,,,0.00,0,WeatherHawk,2013-01-24 10:27:00,
2013-01-24 03:28:00,64.0,34.4,30.11,SE,145,6.0,0.0,33,0.00,,,0.00,0,WeatherHawk,2013-01-24 10:28:00,
2013-01-24 03:29:00,64.0,34.4,30.11,SSE,154,6.0,0.0,33,0.00,,,0.00,0,WeatherHawk,2013-01-24 10:29:00,
2013-01-24 03:32:00,63.9,34.2,30.11,SSE,149,5.0,0.0,33,0.00,,,0.00,0,WeatherHawk,2013-01-24 10:32:00,
2013-01-24 03:33:00,63.9,34.2,30.11,SSE,147,4.0,0.0,33,0.00,,,0.00,0,WeatherHawk,2013-01-24 10:33:00,
2013-01-24 03:35:00,63.9,34.2,30.11,SSE,149,5.0,0.0,33,0.00,,,0.00,0,WeatherHawk,2013-01-24 10:35:00,
2013-01-24 03:37:00,63.9,34.2,30.11,SE,135,5.0,0.0,33,0.00,,,0.00,0,WeatherHawk,2013-01-24 10:37:00,
2013-01-24 03:38:00,63.9,34.2,30.11,SE,135,5.0,0.0,33,0.00,,,0.00,0,WeatherHawk,2013-01-24 10:38:00,
2013-01-24 03:41:00,63.7,34.8,30.11,SSE,147,4.0,0.0,34,0.00,,,0.00,0,WeatherHawk,2013-01-24 10:41:00,
2013-01-24 03:44:00,63.7,34.8,30.11,ESE,122,4.0,0.0,34,0.00,,,0.00,0,WeatherHawk,2013-01-24 10:44:00,
2013-01-24 03:45:00,63.5,34.6,30.11,SE,127,4.0,0.0,34,0.00,,,0.00,0,WeatherHawk,2013-01-24 10:45:00,
2013-01-24 03:48:00,63.5,34.6,30.11,ESE,107,5.0,0.0,34,0.00,,,0.00,0,WeatherHawk,2013-01-24 10:48:00,
2013-01-24 03:52:00,63.3,35.2,30.11,ESE,104,4.0,0.0,35,0.00,,,0.00,0,WeatherHawk,2013-01-24 10:52:00,
2013-01-24 03:53:00,63.3,35.2,30.11,ESE,104,4.0,0.0,35,0.00,,,0.00,0,WeatherHawk,2013-01-24 10:53:00,
2013-01-24 03:54:00,63.3,35.2,30.11,East,92,4.0,0.0,35,0.00,,,0.00,0,WeatherHawk,2013-01-24 10:54:00,
2013-01-24 03:58:00,62.6,36.0,30.11,ESE,116,3.0,0.0,37,0.00,,,0.00,0,WeatherHawk,2013-01-24 10:58:00,
2013-01-24 03:59:00,62.6,36.6,30.11,SE,141,2.0,0.0,38,0.00,,,0.00,0,WeatherHawk,2013-01-24 10:59:00,
2013-01-24 04:03:00,62.4,36.5,30.11,ESE,121,6.0,6.0,38,0.00,,,0.00,0,WeatherHawk,2013-01-24 11:03:00,
2013-01-24 04:08:00,62.2,36.3,30.11,SE,131,6.0,6.0,38,0.00,,,0.00,0,WeatherHawk,2013-01-24 11:08:00,
2013-01-24 04:09:00,62.2,37.0,30.11,SE,139,7.0,0.0,39,0.00,,,0.00,0,WeatherHawk,2013-01-24 11:09:00,
2013-01-24 04:10:00,62.1,36.8,30.11,SE,141,7.0,7.0,39,0.00,,,0.00,0,WeatherHawk,2013-01-24 11:10:00,
2013-01-24 04:13:00,61.9,38.5,30.11,SE,134,6.0,7.0,42,0.00,,,0.00,1,WeatherHawk,2013-01-24 11:13:00,
2013-01-24 04:17:00,61.3,39.8,30.11,SE,139,7.0,7.0,45,0.00,,,0.00,0,WeatherHawk,2013-01-24 11:17:00,
2013-01-24 04:18:00,61.3,39.8,30.11,SE,139,7.0,7.0,45,0.00,,,0.00,0,WeatherHawk,2013-01-24 11:18:00,
2013-01-24 04:22:00,61.0,40.6,30.11,SE,137,7.0,8.0,47,0.00,,,0.00,0,WeatherHawk,2013-01-24 11:22:00,
2013-01-24 04:23:00,61.0,40.6,30.11,SE,137,7.0,-999.0,47,0.00,,,0.00,0,WeatherHawk,2013-01-24 11:23:00,
2013-01-24 04:24:00,60.8,40.4,30.11,SE,142,8.0,8.0,47,0.00,,,0.00,0,WeatherHawk,2013-01-24 11:24:00,
2013-01-24 04:28:00,60.6,40.8,30.10,SE,129,7.0,8.0,48,0.00,,,0.00,0,WeatherHawk,2013-01-24 11:28:00,
2013-01-24 04:29:00,60.6,41.4,30.10,SE,127,8.0,0.0,49,0.00,,,0.00,0,WeatherHawk,2013-01-24 11:29:00,
2013-01-24 04:31:00,60.4,41.7,30.10,ESE,118,7.0,0.0,50,0.00,,,0.00,0,WeatherHawk,2013-01-24 11:31:00,
2013-01-24 04:33:00,60.4,41.7,30.10,SE,136,6.0,-999.0,50,0.00,,,0.00,0,WeatherHawk,2013-01-24 11:33:00,
2013-01-24 04:36:00,60.3,42.6,30.10,SE,129,8.0,0.0,52,0.00,,,0.00,0,WeatherHawk,2013-01-24 11:36:00,
2013-01-24 04:38:00,60.3,43.1,30.10,SE,127,8.0,0.0,53,0.00,,,0.00,1,WeatherHawk,2013-01-24 11:38:00,
2013-01-24 04:39:00,60.3,43.1,30.10,SE,127,8.0,9.0,53,0.00,,,0.00,0,WeatherHawk,2013-01-24 11:39:00,
2013-01-24 04:43:00,60.3,43.5,30.09,SE,125,9.0,9.0,54,0.00,,,0.00,0,WeatherHawk,2013-01-24 11:43:00,
2013-01-24 04:45:00,60.3,44.0,30.09,SE,127,9.0,9.0,55,0.00,,,0.00,0,WeatherHawk,2013-01-24 11:45:00,
2013-01-24 04:46:00,60.3,43.5,30.09,SE,132,8.0,9.0,54,0.00,,,0.00,0,WeatherHawk,2013-01-24 11:46:00,
2013-01-24 04:48:00,60.3,43.5,30.09,SE,128,8.0,9.0,54,0.00,,,0.00,0,WeatherHawk,2013-01-24 11:48:00,
2013-01-24 04:53:00,60.3,43.1,30.09,SE,126,8.0,10.0,53,0.00,,,0.00,0,WeatherHawk,2013-01-24 11:53:00,
2013-01-24 04:54:00,60.3,43.5,30.10,SE,135,6.0,10.0,54,0.00,,,0.00,0,WeatherHawk,2013-01-24 11:54:00,
2013-01-24 04:58:00,60.1,43.4,30.09,SE,131,7.0,10.0,54,0.00,,,0.00,1,WeatherHawk,2013-01-24 11:58:00,
2013-01-24 05:00:00,60.1,42.9,30.09,SE,132,8.0,9.0,53,0.00,,,0.00,0,WeatherHawk,2013-01-24 12:00:00,
2013-01-24 05:03:00,60.1,42.9,30.09,SE,124,8.0,-999.0,53,0.00,,,0.00,0,WeatherHawk,2013-01-24 12:03:00,
2013-01-24 05:08:00,60.4,43.2,30.09,SE,128,9.0,-999.0,53,0.00,,,0.00,0,WeatherHawk,2013-01-24 12:08:00,
2013-01-24 05:10:00,60.4,43.2,30.09,SE,129,9.0,0.0,53,0.00,,,0.00,0,WeatherHawk,2013-01-24 12:10:00,
2013-01-24 05:13:00,60.3,43.5,30.09,SE,132,9.0,0.0,54,0.00,,,0.00,0,WeatherHawk,2013-01-24 12:13:00,
2013-01-24 05:14:00,60.3,43.5,30.09,SE,130,10.0,0.0,54,0.00,,,0.00,0,WeatherHawk,2013-01-24 12:14:00,
2013-01-24 05:17:00,60.3,44.5,30.09,SE,133,10.0,0.0,56,0.00,,,0.00,0,WeatherHawk,2013-01-24 12:17:00,
2013-01-24 05:18:00,60.3,44.5,30.09,SE,133,10.0,0.0,56,0.00,,,0.00,0,WeatherHawk,2013-01-24 12:18:00,
2013-01-24 05:19:00,60.1,44.8,30.09,SE,125,9.0,0.0,57,0.00,,,0.00,1,WeatherHawk,2013-01-24 12:19:00,
2013-01-24 05:23:00,59.9,44.6,30.09,SE,128,11.0,-999.0,57,0.00,,,0.00,0,WeatherHawk,2013-01-24 12:23:00,
2013-01-24 05:26:00,59.7,44.9,30.09,SE,124,11.0,0.0,58,0.00,,,0.00,1,WeatherHawk,2013-01-24 12:26:00,
2013-01-24 05:28:00,59.9,45.1,30.09,SE,125,10.0,0.0,58,0.00,,,0.00,0,WeatherHawk,2013-01-24 12:28:00,
2013-01-24 05:31:00,59.9,45.1,30.08,ESE,118,11.0,0.0,58,0.00,,,0.00,0,WeatherHawk,2013-01-24 12:31:00,
2013-01-24 05:32:00,59.9,45.1,30.08,ESE,111,9.0,0.0,58,0.00,,,0.00,0,WeatherHawk,2013-01-24 12:32:00,
2013-01-24 05:33:00,59.9,45.1,30.08,ESE,111,9.0,0.0,58,0.00,,,0.00,0,WeatherHawk,2013-01-24 12:33:00,
2013-01-24 05:39:00,60.1,45.7,30.08,SE,124,10.0,0.0,59,0.00,,,0.00,0,WeatherHawk,2013-01-24 12:39:00,
2013-01-24 05:41:00,60.1,46.1,30.09,ESE,123,8.0,12.0,60,0.00,,,0.00,0,WeatherHawk,2013-01-24 12:41:00,
2013-01-24 05:42:00,60.3,46.3,30.09,ESE,122,9.0,12.0,60,0.00,,,0.00,0,WeatherHawk,2013-01-24 12:42:00,
2013-01-24 05:46:00,60.3,46.3,30.09,ESE,120,10.0,12.0,60,0.00,,,0.00,0,WeatherHawk,2013-01-24 12:46:00,
2013-01-24 05:47:00,60.3,46.8,30.09,ESE,121,9.0,12.0,61,0.00,,,0.00,0,WeatherHawk,2013-01-24 12:47:00,
2013-01-24 05:48:00,60.3,46.3,30.09,ESE,118,11.0,0.0,60,0.00,,,0.00,0,WeatherHawk,2013-01-24 12:48:00,
2013-01-24 05:52:00,60.4,46.5,30.08,ESE,111,11.0,12.0,60,0.00,,,0.00,0,WeatherHawk,2013-01-24 12:52:00,
2013-01-24 05:53:00,60.4,46.5,30.08,ESE,111,11.0,12.0,60,0.00,,,0.00,0,WeatherHawk,2013-01-24 12:53:00,
2013-01-24 05:55:00,60.4,46.9,30.08,ESE,109,10.0,12.0,61,0.00,,,0.00,0,WeatherHawk,2013-01-24 12:55:00,
2013-01-24 05:58:00,60.3,46.8,30.08,ESE,116,9.0,12.0,61,0.00,,,0.00,0,WeatherHawk,2013-01-24 12:58:00,
2013-01-24 05:59:00,60.4,46.9,30.07,ESE,114,12.0,13.0,61,0.00,,,0.00,0,WeatherHawk,2013-01-24 12:59:00,
2013-01-24 06:00:00,60.4,46.5,30.07,ESE,103,11.0,13.0,60,0.00,,,0.00,0,WeatherHawk,2013-01-24 13:00:00,
2013-01-24 06:02:00,60.6,47.1,30.08,ESE,103,10.0,13.0,61,0.00,,,0.00,0,WeatherHawk,2013-01-24 13:02:00,
2013-01-24 06:03:00,60.6,46.7,30.08,East,99,10.0,-999.0,60,0.00,,,0.00,0,WeatherHawk,2013-01-24 13:03:00,
2013-01-24 06:04:00,60.6,46.7,30.08,ESE,109,10.0,13.0,60,0.00,,,0.00,0,WeatherHawk,2013-01-24 13:04:00,
2013-01-24 06:08:00,60.8,45.9,30.08,ESE,107,10.0,13.0,58,0.00,,,0.00,0,WeatherHawk,2013-01-24 13:08:00,
2013-01-24 06:12:00,61.0,44.7,30.07,ESE,111,11.0,0.0,55,0.00,,,0.00,0,WeatherHawk,2013-01-24 13:12:00,
2013-01-24 06:13:00,61.0,44.7,30.07,ESE,111,11.0,-999.0,55,0.00,,,0.00,0,WeatherHawk,2013-01-24 13:13:00,
2013-01-24 06:16:00,61.2,43.9,30.07,ESE,112,13.0,0.0,53,0.00,,,0.00,1,WeatherHawk,2013-01-24 13:16:00,
2013-01-24 06:17:00,61.3,44.1,30.07,ESE,105,12.0,0.0,53,0.00,,,0.00,0,WeatherHawk,2013-01-24 13:17:00,
2013-01-24 06:18:00,61.3,44.1,30.07,ESE,111,10.0,0.0,53,0.00,,,0.00,0,WeatherHawk,2013-01-24 13:18:00,
2013-01-24 06:19:00,61.3,43.6,30.07,ESE,115,13.0,0.0,52,0.00,,,0.00,0,WeatherHawk,2013-01-24 13:19:00,
2013-01-24 06:22:00,61.3,43.6,30.07,ESE,111,11.0,0.0,52,0.00,,,0.00,0,WeatherHawk,2013-01-24 13:22:00,
2013-01-24 06:23:00,61.3,43.6,30.07,ESE,111,11.0,0.0,52,0.00,,,0.00,0,WeatherHawk,2013-01-24 13:23:00,
2013-01-24 06:25:00,61.3,43.6,30.06,ESE,106,13.0,0.0,52,0.00,,,0.00,0,WeatherHawk,2013-01-24 13:25:00,
2013-01-24 06:28:00,61.3,43.6,30.06,ESE,108,12.0,0.0,52,0.00,,,0.00,0,WeatherHawk,2013-01-24 13:28:00,
2013-01-24 06:30:00,61.2,43.4,30.06,ESE,105,13.0,0.0,52,0.00,,,0.00,0,WeatherHawk,2013-01-24 13:30:00,
2013-01-24 06:33:00,61.3,43.1,30.06,ESE,108,13.0,0.0,51,0.00,,,0.00,0,WeatherHawk,2013-01-24 13:33:00,
2013-01-24 06:38:00,61.5,42.7,30.07,ESE,111,13.0,0.0,50,0.00,,,0.00,0,WeatherHawk,2013-01-24 13:38:00,
2013-01-24 06:40:00,61.5,42.7,30.07,ESE,108,10.0,0.0,50,0.00,,,0.00,0,WeatherHawk,2013-01-24 13:40:00,
2013-01-24 06:43:00,61.7,42.3,30.07,ESE,107,10.0,-999.0,49,0.00,,,0.00,0,WeatherHawk,2013-01-24 13:43:00,
2013-01-24 06:45:00,61.9,42.0,30.07,ESE,113,13.0,0.0,48,0.00,,,0.00,0,WeatherHawk,2013-01-24 13:45:00,
2013-01-24 06:48:00,61.9,42.0,30.08,ESE,107,9.0,0.0,48,0.00,,,0.00,0,WeatherHawk,2013-01-24 13:48:00,
2013-01-24 06:49:00,62.1,42.1,30.08,ESE,111,11.0,13.0,48,0.00,,,0.00,0,WeatherHawk,2013-01-24 13:49:00,
2013-01-24 06:53:00,62.4,41.9,30.09,ESE,121,9.0,13.0,47,0.00,,,0.00,0,WeatherHawk,2013-01-24 13:53:00,
2013-01-24 06:56:00,62.6,41.5,30.09,ESE,122,8.0,13.0,46,0.00,,,0.00,0,WeatherHawk,2013-01-24 13:56:00,
2013-01-24 06:58:00,62.6,41.5,30.09,SE,124,8.0,-999.0,46,0.00,,,0.00,0,WeatherHawk,2013-01-24 13:58:00,
2013-01-24 07:00:00,62.6,41.5,30.10,SE,134,6.0,0.0,46,0.00,,,0.00,0,WeatherHawk,2013-01-24 14:00:00,
2013-01-24 07:02:00,62.8,41.1,30.10,SE,125,6.0,0.0,45,0.00,,,0.00,0,WeatherHawk,2013-01-24 14:02:00,
2013-01-24 07:04:00,62.8,41.1,30.10,SE,136,6.0,0.0,45,0.00,,,0.00,0,WeatherHawk,2013-01-24 14:04:00,
2013-01-24 07:05:00,62.8,41.1,30.11,SE,137,5.0,0.0,45,0.00,,,0.00,0,WeatherHawk,2013-01-24 14:05:00,
2013-01-24 07:06:00,62.8,40.5,30.11,SE,141,6.0,0.0,44,0.00,,,0.00,0,WeatherHawk,2013-01-24 14:06:00,
2013-01-24 07:07:00,63.0,40.1,30.11,SE,133,6.0,0.0,43,0.00,,,0.00,0,WeatherHawk,2013-01-24 14:07:00,
2013-01-24 07:12:00,63.0,40.7,30.11,SE,141,5.0,0.0,44,0.00,,,0.00,0,WeatherHawk,2013-01-24 14:12:00,
2013-01-24 07:13:00,63.0,40.7,30.11,SE,138,5.0,-999.0,44,0.00,,,0.00,0,WeatherHawk,2013-01-24 14:13:00,
2013-01-24 07:17:00,62.8,41.1,30.11,SE,127,5.0,0.0,45,0.00,,,0.00,0,WeatherHawk,2013-01-24 14:17:00,
2013-01-24 07:18:00,62.8,41.1,30.11,SE,127,5.0,0.0,45,0.00,,,0.00,0,WeatherHawk,2013-01-24 14:18:00,
2013-01-24 07:19:00,62.6,41.0,30.11,SE,128,6.0,0.0,45,0.00,,,0.00,0,WeatherHawk,2013-01-24 14:19:00,
2013-01-24 07:23:00,63.0,40.7,30.11,ESE,119,6.0,0.0,44,0.00,,,0.00,0,WeatherHawk,2013-01-24 14:23:00,
2013-01-24 07:26:00,63.0,40.7,30.11,ESE,105,5.0,0.0,44,0.00,,,0.00,0,WeatherHawk,2013-01-24 14:26:00,
2013-01-24 07:29:00,62.6,42.1,30.11,NE,42,6.0,0.0,47,0.00,,,0.00,0,WeatherHawk,2013-01-24 14:29:00,
2013-01-24 07:31:00,62.1,42.1,30.11,NE,46,5.0,0.0,48,0.00,,,0.00,0,WeatherHawk,2013-01-24 14:31:00,
2013-01-24 07:32:00,61.9,42.5,30.11,NE,54,4.0,0.0,49,0.00,,,0.00,0,WeatherHawk,2013-01-24 14:32:00,
2013-01-24 07:35:00,61.7,42.3,30.11,NE,53,5.0,0.0,49,0.00,,,0.00,0,WeatherHawk,2013-01-24 14:35:00,
2013-01-24 07:36:00,61.7,42.3,30.11,NE,37,5.0,0.0,49,0.00,,,0.00,0,WeatherHawk,2013-01-24 14:36:00,
2013-01-24 07:37:00,61.5,42.7,30.11,NE,35,4.0,0.0,50,0.00,,,0.00,1,WeatherHawk,2013-01-24 14:37:00,
2013-01-24 07:42:00,61.0,43.2,30.11,North,357,4.0,0.0,52,0.00,,,0.00,1,WeatherHawk,2013-01-24 14:42:00,
2013-01-24 07:43:00,61.0,43.2,30.11,North,0,4.0,0.0,52,0.00,,,0.00,2,WeatherHawk,2013-01-24 14:43:00,
2013-01-24 07:48:00,60.6,43.9,30.12,NNW,333,5.0,0.0,54,0.00,,,0.00,3,WeatherHawk,2013-01-24 14:48:00,
2013-01-24 07:50:00,60.4,44.2,30.12,NNW,330,6.0,0.0,55,0.00,,,0.00,4,WeatherHawk,2013-01-24 14:50:00,
2013-01-24 07:53:00,60.1,44.3,30.12,NW,326,7.0,0.0,56,0.00,,,0.00,7,WeatherHawk,2013-01-24 14:53:00,
2013-01-24 07:54:00,59.9,44.6,30.12,NW,320,7.0,0.0,57,0.00,,,0.00,8,WeatherHawk,2013-01-24 14:54:00,
2013-01-24 07:56:00,59.7,44.9,30.12,WNW,303,7.0,0.0,58,0.00,,,0.00,8,WeatherHawk,2013-01-24 14:56:00,
2013-01-24 07:58:00,59.5,45.2,30.12,WNW,301,7.0,0.0,59,0.00,,,0.00,8,WeatherHawk,2013-01-24 14:58:00,
2013-01-24 08:04:00,58.8,45.8,30.13,NW,318,4.0,0.0,62,0.00,,,0.00,7,WeatherHawk,2013-01-24 15:04:00,
2013-01-24 08:05:00,58.8,46.3,30.13,NW,317,3.0,0.0,63,0.00,,,0.00,8,WeatherHawk,2013-01-24 15:05:00,
2013-01-24 08:06:00,58.6,45.7,30.13,WNW,303,4.0,0.0,62,0.00,,,0.00,9,WeatherHawk,2013-01-24 15:06:00,
2013-01-24 08:08:00,58.6,46.5,30.13,WNW,286,5.0,0.0,64,0.00,,,0.00,12,WeatherHawk,2013-01-24 15:08:00,
2013-01-24 08:11:00,58.5,46.7,30.13,NW,324,5.0,0.0,65,0.00,,,0.00,13,WeatherHawk,2013-01-24 15:11:00,
2013-01-24 08:12:00,58.3,46.6,30.13,NW,322,5.0,0.0,65,0.00,,,0.00,15,WeatherHawk,2013-01-24 15:12:00,
2013-01-24 08:14:00,58.3,47.0,30.14,WNW,300,4.0,0.0,66,0.00,,,0.00,15,WeatherHawk,2013-01-24 15:14:00,
2013-01-24 08:17:00,58.1,47.2,30.14,West,272,5.0,0.0,67,0.00,,,0.00,17,WeatherHawk,2013-01-24 15:17:00,
2013-01-24 08:18:00,58.1,47.2,30.14,West,272,5.0,-999.0,67,0.00,,,0.00,17,WeatherHawk,2013-01-24 15:18:00,
2013-01-24 08:20:00,57.9,47.8,30.14,WNW,286,4.0,0.0,69,0.00,,,0.00,19,WeatherHawk,2013-01-24 15:20:00,
2013-01-24 08:22:00,57.7,48.0,30.14,West,261,4.0,0.0,70,0.00,,,0.00,20,WeatherHawk,2013-01-24 15:22:00,
2013-01-24 08:23:00,57.7,48.0,30.14,West,259,4.0,0.0,70,0.00,,,0.00,21,WeatherHawk,2013-01-24 15:23:00,
2013-01-24 08:28:00,57.6,47.8,30.14,WSW,251,4.0,-999.0,70,0.00,,,0.00,34,WeatherHawk,2013-01-24 15:28:00,
2013-01-24 08:32:00,57.6,47.5,30.14,West,278,4.0,0.0,69,0.00,,,0.00,48,WeatherHawk,2013-01-24 15:32:00,
2013-01-24 08:33:00,57.6,47.5,30.14,West,278,4.0,-999.0,69,0.00,,,0.00,48,WeatherHawk,2013-01-24 15:33:00,
2013-01-24 08:35:00,57.9,47.8,30.14,West,271,4.0,0.0,69,0.00,,,0.00,55,WeatherHawk,2013-01-24 15:35:00,
2013-01-24 08:36:00,57.9,47.8,30.14,West,265,4.0,0.0,69,0.00,,,0.00,59,WeatherHawk,2013-01-24 15:36:00,
2013-01-24 08:37:00,57.9,47.8,30.14,West,268,4.0,0.0,69,0.00,,,0.00,59,WeatherHawk,2013-01-24 15:37:00,
2013-01-24 08:43:00,58.1,48.0,30.14,WSW,251,4.0,0.0,69,0.00,,,0.00,48,WeatherHawk,2013-01-24 15:43:00,
2013-01-24 08:45:00,58.3,48.2,30.14,West,261,4.0,0.0,69,0.00,,,0.00,37,WeatherHawk,2013-01-24 15:45:00,
2013-01-24 08:48:00,58.5,47.9,30.14,West,270,5.0,-999.0,68,0.00,,,0.00,41,WeatherHawk,2013-01-24 15:48:00,
2013-01-24 08:50:00,58.6,48.1,30.14,West,266,5.0,0.0,68,0.00,,,0.00,33,WeatherHawk,2013-01-24 15:50:00,
2013-01-24 08:52:00,58.8,48.3,30.15,WSW,250,4.0,0.0,68,0.00,,,0.00,38,WeatherHawk,2013-01-24 15:52:00,
2013-01-24 08:54:00,58.8,48.3,30.15,SW,223,4.0,0.0,68,0.00,,,0.00,43,WeatherHawk,2013-01-24 15:54:00,
2013-01-24 08:55:00,58.8,48.3,30.15,SW,223,4.0,0.0,68,0.00,,,0.00,47,WeatherHawk,2013-01-24 15:55:00,
2013-01-24 08:56:00,59.0,48.1,30.15,SW,220,4.0,0.0,67,0.00,,,0.00,49,WeatherHawk,2013-01-24 15:56:00,
2013-01-24 09:00:00,59.2,46.6,30.15,WSW,240,3.0,0.0,63,0.00,,,0.00,51,WeatherHawk,2013-01-24 16:00:00,
2013-01-24 09:03:00,59.5,45.6,30.15,WSW,241,2.0,0.0,60,0.00,,,0.00,51,WeatherHawk,2013-01-24 16:03:00,
2013-01-24 09:06:00,59.9,45.5,30.15,SW,228,3.0,0.0,59,0.00,,,0.00,46,WeatherHawk,2013-01-24 16:06:00,
2013-01-24 09:08:00,60.3,45.4,30.15,SW,233,3.0,0.0,58,0.00,,,0.00,43,WeatherHawk,2013-01-24 16:08:00,
2013-01-24 09:13:00,60.6,45.8,30.15,SW,231,2.0,4.0,58,0.00,,,0.00,46,WeatherHawk,2013-01-24 16:13:00,
2013-01-24 09:14:00,60.6,45.8,30.15,WSW,257,2.0,4.0,58,0.00,,,0.00,57,WeatherHawk,2013-01-24 16:14:00,
2013-01-24 09:18:00,60.8,45.9,30.15,WNW,290,1.0,4.0,58,0.00,,,0.00,81,WeatherHawk,2013-01-24 16:18:00,
2013-01-24 09:19:00,60.8,45.9,30.15,West,277,2.0,4.0,58,0.00,,,0.00,90,WeatherHawk,2013-01-24 16:19:00,
2013-01-24 09:22:00,60.8,45.5,30.14,West,265,3.0,4.0,57,0.00,,,0.00,95,WeatherHawk,2013-01-24 16:22:00,
2013-01-24 09:23:00,60.8,45.5,30.14,West,265,3.0,4.0,57,0.00,,,0.00,95,WeatherHawk,2013-01-24 16:23:00,
2013-01-24 09:28:00,61.2,45.8,30.15,SW,233,4.0,4.0,57,0.00,,,0.00,72,WeatherHawk,2013-01-24 16:28:00,
2013-01-24 09:29:00,61.2,46.3,30.15,SW,231,3.0,4.0,58,0.00,,,0.00,76,WeatherHawk,2013-01-24 16:29:00,
2013-01-24 09:31:00,61.2,46.3,30.16,SW,233,3.0,4.0,58,0.00,,,0.00,74,WeatherHawk,2013-01-24 16:31:00,
2013-01-24 09:34:00,61.2,46.7,30.16,WSW,247,3.0,4.0,59,0.00,,,0.00,74,WeatherHawk,2013-01-24 16:34:00,
2013-01-24 09:37:00,61.3,46.4,30.16,WSW,254,3.0,4.0,58,0.00,,,0.00,80,WeatherHawk,2013-01-24 16:37:00,
2013-01-24 09:38:00,61.3,46.4,30.16,WSW,247,2.0,4.0,58,0.00,,,0.00,85,WeatherHawk,2013-01-24 16:38:00,
2013-01-24 09:39:00,61.3,46.4,30.16,WSW,246,2.0,0.0,58,0.00,,,0.00,91,WeatherHawk,2013-01-24 16:39:00,
2013-01-24 09:40:00,61.5,46.1,30.16,SW,232,2.0,0.0,57,0.00,,,0.00,99,WeatherHawk,2013-01-24 16:40:00,
2013-01-24 09:43:00,61.5,46.1,30.16,WSW,244,2.0,0.0,57,0.00,,,0.00,112,WeatherHawk,2013-01-24 16:43:00,
2013-01-24 09:45:00,61.7,46.3,30.16,WSW,250,2.0,0.0,57,0.00,,,0.00,115,WeatherHawk,2013-01-24 16:45:00,
2013-01-24 09:48:00,61.7,46.3,30.16,SW,224,1.0,0.0,57,0.00,,,0.00,114,WeatherHawk,2013-01-24 16:48:00,
2013-01-24 09:49:00,61.7,46.3,30.16,SSW,210,2.0,0.0,57,0.00,,,0.00,124,WeatherHawk,2013-01-24 16:49:00,
2013-01-24 09:53:00,61.9,46.5,30.16,SW,230,1.0,0.0,57,0.00,,,0.00,130,WeatherHawk,2013-01-24 16:53:00,
2013-01-24 09:54:00,61.9,46.5,30.15,SSW,206,1.0,0.0,57,0.00,,,0.00,131,WeatherHawk,2013-01-24 16:54:00,
2013-01-24 09:59:00,62.1,46.2,30.15,WSW,238,1.0,0.0,56,0.00,,,0.00,128,WeatherHawk,2013-01-24 16:59:00,
2013-01-24 10:00:00,62.1,46.2,30.15,SSW,210,1.0,0.0,56,0.00,,,0.00,124,WeatherHawk,2013-01-24 17:00:00,
2013-01-24 10:01:00,62.1,45.7,30.16,SSW,212,2.0,0.0,55,0.00,,,0.00,118,WeatherHawk,2013-01-24 17:01:00,
2013-01-24 10:03:00,62.2,46.3,30.16,SW,222,2.0,0.0,56,0.00,,,0.00,106,WeatherHawk,2013-01-24 17:03:00,
2013-01-24 10:08:00,62.4,46.0,30.17,SW,227,4.0,0.0,55,0.00,,,0.00,103,WeatherHawk,2013-01-24 17:08:00,
2013-01-24 10:12:00,62.6,45.2,30.17,SW,230,5.0,0.0,53,0.00,,,0.00,75,WeatherHawk,2013-01-24 17:12:00,
2013-01-24 10:13:00,62.6,45.2,30.17,SW,227,5.0,0.0,53,0.00,,,0.00,77,WeatherHawk,2013-01-24 17:13:00,
2013-01-24 10:14:00,62.6,45.2,30.17,SW,225,3.0,0.0,53,0.00,,,0.00,84,WeatherHawk,2013-01-24 17:14:00,
2013-01-24 10:18:00,62.8,45.9,30.17,WSW,238,2.0,0.0,54,0.00,,,0.00,111,WeatherHawk,2013-01-24 17:18:00,
2013-01-24 10:19:00,62.8,45.9,30.17,West,269,0.0,0.0,54,0.00,,,0.00,124,WeatherHawk,2013-01-24 17:19:00,
2013-01-24 10:22:00,62.8,45.4,30.17,NNE,33,2.0,0.0,53,0.00,,,0.00,129,WeatherHawk,2013-01-24 17:22:00,
2013-01-24 10:23:00,62.8,45.4,30.17,NNE,33,2.0,0.0,53,0.00,,,0.00,129,WeatherHawk,2013-01-24 17:23:00,
2013-01-24 10:24:00,62.8,45.9,30.16,NNE,29,3.0,0.0,54,0.00,,,0.00,131,WeatherHawk,2013-01-24 17:24:00,
2013-01-24 10:26:00,62.8,45.4,30.16,NE,40,4.0,0.0,53,0.00,,,0.00,132,WeatherHawk,2013-01-24 17:26:00,
2013-01-24 10:28:00,62.8,45.4,30.16,NE,51,4.0,-999.0,53,0.00,,,0.00,132,WeatherHawk,2013-01-24 17:28:00,
2013-01-24 10:29:00,63.0,45.6,30.17,ENE,59,3.0,0.0,53,0.00,,,0.00,136,WeatherHawk,2013-01-24 17:29:00,
2013-01-24 10:32:00,63.1,45.2,30.17,NE,55,3.0,0.0,52,0.00,,,0.00,143,WeatherHawk,2013-01-24 17:32:00,
2013-01-24 10:33:00,63.1,45.2,30.17,NE,49,2.0,0.0,52,0.00,,,0.00,141,WeatherHawk,2013-01-24 17:33:00,
2013-01-24 10:37:00,63.5,44.5,30.17,NNE,31,4.0,0.0,50,0.00,,,0.00,198,WeatherHawk,2013-01-24 17:37:00,
2013-01-24 10:38:00,63.5,45.0,30.17,NNE,25,4.0,0.0,51,0.00,,,0.00,215,WeatherHawk,2013-01-24 17:38:00,
2013-01-24 10:41:00,63.7,44.7,30.17,NNE,26,4.0,4.0,50,0.00,,,0.00,233,WeatherHawk,2013-01-24 17:41:00,
2013-01-24 10:43:00,63.9,44.3,30.17,NNE,27,4.0,4.0,49,0.00,,,0.00,237,WeatherHawk,2013-01-24 17:43:00,
2013-01-24 10:44:00,63.9,44.3,30.17,NNE,32,4.0,4.0,49,0.00,,,0.00,243,WeatherHawk,2013-01-24 17:44:00,
2013-01-24 10:48:00,64.2,43.6,30.17,North,8,3.0,0.0,47,0.00,,,0.00,295,WeatherHawk,2013-01-24 17:48:00,
2013-01-24 10:49:00,64.2,43.0,30.17,North,11,3.0,0.0,46,0.00,,,0.00,322,WeatherHawk,2013-01-24 17:49:00,
2013-01-24 10:50:00,64.4,43.2,30.17,NNE,14,3.0,0.0,46,0.00,,,0.00,351,WeatherHawk,2013-01-24 17:50:00,
2013-01-24 10:51:00,64.6,42.2,30.17,NNE,32,5.0,0.0,44,0.00,,,0.00,374,WeatherHawk,2013-01-24 17:51:00,
2013-01-24 10:55:00,64.8,41.7,30.16,NE,34,6.0,0.0,43,0.00,,,0.00,368,WeatherHawk,2013-01-24 17:55:00,
2013-01-24 10:57:00,64.8,41.1,30.17,NNE,33,7.0,0.0,42,0.00,,,0.00,309,WeatherHawk,2013-01-24 17:57:00,
2013-01-24 11:02:00,64.9,40.7,30.17,NNE,32,5.0,0.0,41,0.00,,,0.00,263,WeatherHawk,2013-01-24 18:02:00,
2013-01-24 11:04:00,64.8,41.1,30.17,NE,35,6.0,0.0,42,0.00,,,0.00,294,WeatherHawk,2013-01-24 18:04:00,
2013-01-24 11:05:00,64.9,41.3,30.17,NE,40,5.0,0.0,42,0.00,,,0.00,331,WeatherHawk,2013-01-24 18:05:00,
2013-01-24 11:07:00,64.9,41.9,30.18,NE,46,4.0,0.0,43,0.00,,,0.00,332,WeatherHawk,2013-01-24 18:07:00,
2013-01-24 11:09:00,65.1,42.1,30.18,NE,35,3.0,0.0,43,0.00,,,0.00,296,WeatherHawk,2013-01-24 18:09:00,
2013-01-24 11:12:00,65.3,41.6,30.18,NNE,18,5.0,0.0,42,0.00,,,0.00,283,WeatherHawk,2013-01-24 18:12:00,
2013-01-24 11:13:00,65.1,41.5,30.18,NE,35,5.0,0.0,42,0.00,,,0.00,283,WeatherHawk,2013-01-24 18:13:00,
2013-01-24 11:17:00,65.3,42.2,30.18,NNE,29,6.0,0.0,43,0.00,,,0.00,251,WeatherHawk,2013-01-24 18:17:00,
2013-01-24 11:19:00,65.3,42.2,30.18,NE,38,5.0,0.0,43,0.00,,,0.00,212,WeatherHawk,2013-01-24 18:19:00,
2013-01-24 11:21:00,65.1,42.1,30.18,NE,34,5.0,6.0,43,0.00,,,0.00,174,WeatherHawk,2013-01-24 18:21:00,
2013-01-24 11:24:00,65.1,42.1,30.19,North,7,3.0,6.0,43,0.00,,,0.00,128,WeatherHawk,2013-01-24 18:24:00,
2013-01-24 11:26:00,65.1,42.1,30.19,NNE,27,3.0,6.0,43,0.00,,,0.00,112,WeatherHawk,2013-01-24 18:26:00,
2013-01-24 11:27:00,65.1,42.1,30.19,NNE,27,3.0,6.0,43,0.00,,,0.00,112,WeatherHawk,2013-01-24 18:27:00,
2013-01-24 11:30:00,65.1,43.2,30.19,North,0,4.0,0.0,45,0.00,,,0.00,125,WeatherHawk,2013-01-24 18:30:00,
2013-01-24 11:32:00,64.9,43.7,30.19,North,9,4.0,0.0,46,0.00,,,0.00,138,WeatherHawk,2013-01-24 18:32:00,
2013-01-24 11:34:00,64.9,43.7,30.19,North,3,6.0,0.0,46,0.00,,,0.00,169,WeatherHawk,2013-01-24 18:34:00,
2013-01-24 11:37:00,64.9,44.8,30.19,North,1,6.0,0.0,48,0.00,,,0.00,185,WeatherHawk,2013-01-24 18:37:00,
2013-01-24 11:39:00,64.8,45.1,30.19,North,7,4.0,0.0,49,0.00,,,0.00,171,WeatherHawk,2013-01-24 18:39:00,
2013-01-24 11:40:00,64.8,45.1,30.19,North,358,4.0,0.0,49,0.00,,,0.00,155,WeatherHawk,2013-01-24 18:40:00,
2013-01-24 11:42:00,64.8,45.1,30.19,North,353,4.0,0.0,49,0.00,,,0.00,152,WeatherHawk,2013-01-24 18:42:00,
2013-01-24 11:45:00,64.8,44.1,30.19,NNW,346,4.0,0.0,47,0.00,,,0.00,139,WeatherHawk,2013-01-24 18:45:00,
2013-01-24 11:47:00,64.8,44.6,30.19,North,8,4.0,0.0,48,0.00,,,0.00,156,WeatherHawk,2013-01-24 18:47:00,
2013-01-24 11:53:00,64.8,44.1,30.18,NE,36,4.0,-999.0,47,0.00,,,0.00,171,WeatherHawk,2013-01-24 18:53:00,
2013-01-24 11:58:00,64.9,44.8,30.17,NNE,32,4.0,0.0,48,0.00,,,0.00,210,WeatherHawk,2013-01-24 18:58:00,
2013-01-24 11:59:00,64.9,43.7,30.17,NE,38,5.0,0.0,46,0.00,,,0.00,213,WeatherHawk,2013-01-24 18:59:00,
2013-01-24 12:01:00,64.9,44.2,30.17,NE,34,5.0,0.0,47,0.00,,,0.00,216,WeatherHawk,2013-01-24 19:01:00,
2013-01-24 12:02:00,64.9,44.2,30.17,NNE,20,5.0,0.0,47,0.00,,,0.00,214,WeatherHawk,2013-01-24 19:02:00,
2013-01-24 12:05:00,65.1,43.8,30.17,NNE,21,4.0,0.0,46,0.00,,,0.00,205,WeatherHawk,2013-01-24 19:05:00,
2013-01-24 12:06:00,65.1,43.8,30.17,NNE,16,5.0,0.0,46,0.00,,,0.00,204,WeatherHawk,2013-01-24 19:06:00,
2013-01-24 12:12:00,65.3,43.4,30.17,ENE,61,6.0,0.0,45,0.00,,,0.00,229,WeatherHawk,2013-01-24 19:12:00,
2013-01-24 12:14:00,65.5,43.0,30.17,NE,47,5.0,0.0,44,0.00,,,0.00,255,WeatherHawk,2013-01-24 19:14:00,
2013-01-24 12:18:00,65.7,43.1,30.17,ENE,60,5.0,0.0,44,0.00,,,0.00,329,WeatherHawk,2013-01-24 19:18:00,
2013-01-24 12:19:00,65.7,43.1,30.17,ENE,57,5.0,0.0,44,0.00,,,0.00,319,WeatherHawk,2013-01-24 19:19:00,
2013-01-24 12:21:00,65.8,42.7,30.17,ENE,70,4.0,0.0,43,0.00,,,0.00,267,WeatherHawk,2013-01-24 19:21:00,
2013-01-24 12:23:00,65.8,43.3,30.17,ENE,74,5.0,0.0,44,0.00,,,0.00,257,WeatherHawk,2013-01-24 19:23:00,
2013-01-24 12:27:00,66.0,42.9,30.17,East,85,5.0,0.0,43,0.00,,,0.00,274,WeatherHawk,2013-01-24 19:27:00,
2013-01-24 12:29:00,66.0,42.9,30.17,East,91,4.0,0.0,43,0.00,,,0.00,278,WeatherHawk,2013-01-24 19:29:00,
2013-01-24 12:32:00,66.2,42.4,30.17,East,80,5.0,0.0,42,0.00,,,0.00,271,WeatherHawk,2013-01-24 19:32:00,
2013-01-24 12:33:00,66.2,42.4,30.17,ENE,77,4.0,0.0,42,0.00,,,0.00,264,WeatherHawk,2013-01-24 19:33:00,
2013-01-24 12:34:00,66.2,41.8,30.17,East,79,5.0,0.0,41,0.00,,,0.00,263,WeatherHawk,2013-01-24 19:34:00,
2013-01-24 12:37:00,66.2,42.4,30.17,East,85,5.0,0.0,42,0.00,,,0.00,259,WeatherHawk,2013-01-24 19:37:00,
2013-01-24 12:38:00,66.2,42.4,30.17,East,100,4.0,0.0,42,0.00,,,0.00,255,WeatherHawk,2013-01-24 19:38:00,
2013-01-24 12:42:00,66.4,42.6,30.17,ESE,111,5.0,0.0,42,0.00,,,0.00,246,WeatherHawk,2013-01-24 19:42:00,
2013-01-24 12:44:00,66.4,42.6,30.17,ESE,114,6.0,0.0,42,0.00,,,0.00,244,WeatherHawk,2013-01-24 19:44:00,
2013-01-24 12:47:00,66.2,42.4,30.16,ESE,105,6.0,0.0,42,0.00,,,0.00,259,WeatherHawk,2013-01-24 19:47:00,
2013-01-24 12:50:00,66.2,43.0,30.16,ESE,106,7.0,7.0,43,0.00,,,0.00,284,WeatherHawk,2013-01-24 19:50:00,
2013-01-24 12:52:00,66.4,42.6,30.16,East,98,6.0,7.0,42,0.00,,,0.00,324,WeatherHawk,2013-01-24 19:52:00,
2013-01-24 12:53:00,66.4,42.6,30.16,East,98,6.0,7.0,42,0.00,,,0.00,324,WeatherHawk,2013-01-24 19:53:00,
2013-01-24 12:54:00,66.4,42.6,30.16,East,90,5.0,7.0,42,0.00,,,0.00,353,WeatherHawk,2013-01-24 19:54:00,
2013-01-24 12:57:00,66.4,42.6,30.15,ESE,103,7.0,7.0,42,0.00,,,0.00,351,WeatherHawk,2013-01-24 19:57:00,
2013-01-24 12:58:00,66.4,42.6,30.15,ESE,103,7.0,7.0,42,0.00,,,0.00,351,WeatherHawk,2013-01-24 19:58:00,
2013-01-24 13:00:00,66.6,42.7,30.15,ESE,104,5.0,8.0,42,0.00,,,0.00,390,WeatherHawk,2013-01-24 20:00:00,
2013-01-24 13:03:00,66.7,43.5,30.15,ENE,64,7.0,-999.0,43,0.00,,,0.00,373,WeatherHawk,2013-01-24 20:03:00,
2013-01-24 13:05:00,66.7,43.5,30.15,East,86,6.0,8.0,43,0.00,,,0.00,372,WeatherHawk,2013-01-24 20:05:00,
2013-01-24 13:08:00,66.9,43.7,30.15,East,80,7.0,8.0,43,0.00,,,0.00,422,WeatherHawk,2013-01-24 20:08:00,
2013-01-24 13:13:00,66.9,42.4,30.15,ENE,75,8.0,8.0,41,0.00,,,0.00,369,WeatherHawk,2013-01-24 20:13:00,
2013-01-24 13:17:00,66.9,43.1,30.15,ENE,63,8.0,8.0,42,0.00,,,0.00,364,WeatherHawk,2013-01-24 20:17:00,
2013-01-24 13:19:00,67.1,42.0,30.15,ENE,75,6.0,0.0,40,0.00,,,0.00,359,WeatherHawk,2013-01-24 20:19:00,
2013-01-24 13:22:00,67.5,42.3,30.15,East,87,7.0,9.0,40,0.00,,,0.00,407,WeatherHawk,2013-01-24 20:22:00,
2013-01-24 13:23:00,67.5,42.3,30.15,East,87,7.0,9.0,40,0.00,,,0.00,407,WeatherHawk,2013-01-24 20:23:00,
2013-01-24 13:24:00,67.5,41.6,30.15,ENE,75,4.0,9.0,39,0.00,,,0.00,397,WeatherHawk,2013-01-24 20:24:00,
2013-01-24 13:25:00,67.6,42.4,30.15,ENE,72,4.0,9.0,40,0.00,,,0.00,391,WeatherHawk,2013-01-24 20:25:00,
2013-01-24 13:30:00,67.8,42.0,30.15,East,92,5.0,8.0,39,0.00,,,0.00,387,WeatherHawk,2013-01-24 20:30:00,
2013-01-24 13:32:00,67.8,42.0,30.15,East,83,6.0,8.0,39,0.00,,,0.00,372,WeatherHawk,2013-01-24 20:32:00,
2013-01-24 13:34:00,68.0,42.1,30.15,East,82,6.0,8.0,39,0.00,,,0.00,341,WeatherHawk,2013-01-24 20:34:00,
2013-01-24 13:35:00,68.0,41.4,30.15,East,85,4.0,8.0,38,0.00,,,0.00,319,WeatherHawk,2013-01-24 20:35:00,
2013-01-24 13:36:00,68.0,42.1,30.15,East,79,6.0,8.0,39,0.00,,,0.00,314,WeatherHawk,2013-01-24 20:36:00,
2013-01-24 13:39:00,68.0,41.4,30.14,East,97,7.0,0.0,38,0.00,,,0.00,374,WeatherHawk,2013-01-24 20:39:00,
2013-01-24 13:42:00,68.0,41.4,30.14,ESE,104,6.0,8.0,38,0.00,,,0.00,408,WeatherHawk,2013-01-24 20:42:00,
2013-01-24 13:43:00,68.0,41.4,30.14,ESE,104,6.0,-999.0,38,0.00,,,0.00,408,WeatherHawk,2013-01-24 20:43:00,
2013-01-24 13:44:00,68.0,41.4,30.14,East,93,5.0,8.0,38,0.00,,,0.00,433,WeatherHawk,2013-01-24 20:44:00,
2013-01-24 13:48:00,68.4,41.1,30.14,East,94,4.0,8.0,37,0.00,,,0.00,494,WeatherHawk,2013-01-24 20:48:00,
2013-01-24 13:52:00,68.5,41.2,30.14,ENE,74,5.0,7.0,37,0.00,,,0.00,501,WeatherHawk,2013-01-24 20:52:00,
2013-01-24 13:53:00,68.5,41.2,30.13,ENE,61,7.0,7.0,37,0.00,,,0.00,560,WeatherHawk,2013-01-24 20:53:00,
2013-01-24 13:55:00,68.7,42.1,30.13,East,100,4.0,7.0,38,0.00,,,0.00,532,WeatherHawk,2013-01-24 20:55:00,
2013-01-24 13:58:00,69.1,42.4,30.13,ENE,76,9.0,9.0,38,0.00,,,0.00,394,WeatherHawk,2013-01-24 20:58:00,
2013-01-24 14:00:00,68.9,42.2,30.13,NE,54,6.0,9.0,38,0.00,,,0.00,405,WeatherHawk,2013-01-24 21:00:00,
2013-01-24 14:03:00,68.7,41.4,30.13,East,93,6.0,-999.0,37,0.00,,,0.00,448,WeatherHawk,2013-01-24 21:03:00,
2013-01-24 14:05:00,68.9,41.5,30.13,East,85,4.0,9.0,37,0.00,,,0.00,707,WeatherHawk,2013-01-24 21:05:00,
2013-01-24 14:06:00,69.1,41.0,30.13,East,101,3.0,9.0,36,0.00,,,0.00,857,WeatherHawk,2013-01-24 21:06:00,
2013-01-24 14:08:00,69.4,42.0,30.13,ESE,106,6.0,9.0,37,0.00,,,0.00,427,WeatherHawk,2013-01-24 21:08:00,
2013-01-24 14:13:00,69.6,40.7,30.12,SE,133,3.0,8.0,35,0.00,,,0.00,778,WeatherHawk,2013-01-24 21:13:00,
2013-01-24 14:15:00,70.0,41.1,30.12,East,86,5.0,8.0,35,0.00,,,0.00,702,WeatherHawk,2013-01-24 21:15:00,
2013-01-24 14:18:00,69.8,40.9,30.12,ESE,117,3.0,8.0,35,0.00,,,0.00,696,WeatherHawk,2013-01-24 21:18:00,
2013-01-24 14:19:00,70.0,41.8,30.12,ENE,59,3.0,0.0,36,0.00,,,0.00,721,WeatherHawk,2013-01-24 21:19:00,
2013-01-24 14:23:00,70.0,41.1,30.12,East,94,5.0,9.0,35,0.00,,,0.00,441,WeatherHawk,2013-01-24 21:23:00,
2013-01-24 14:27:00,70.2,41.9,30.11,ENE,68,8.0,9.0,36,0.00,,,0.00,320,WeatherHawk,2013-01-24 21:27:00,
2013-01-24 14:28:00,69.8,40.9,30.11,ENE,74,6.0,9.0,35,0.00,,,0.00,299,WeatherHawk,2013-01-24 21:28:00,
2013-01-24 14:29:00,69.8,41.6,30.11,ENE,73,6.0,10.0,36,0.00,,,0.00,569,WeatherHawk,2013-01-24 21:29:00,
2013-01-24 14:32:00,70.2,41.9,30.11,NE,44,7.0,10.0,36,0.00,,,0.00,686,WeatherHawk,2013-01-24 21:32:00,
2013-01-24 14:33:00,70.2,41.9,30.11,NE,44,7.0,10.0,36,0.00,,,0.00,686,WeatherHawk,2013-01-24 21:33:00,
2013-01-24 14:36:00,70.2,41.9,30.11,NNE,31,4.0,10.0,36,0.00,,,0.00,486,WeatherHawk,2013-01-24 21:36:00,
2013-01-24 14:38:00,70.2,41.9,30.11,ENE,73,7.0,10.0,36,0.00,,,0.00,524,WeatherHawk,2013-01-24 21:38:00,
2013-01-24 14:43:00,70.3,42.1,30.12,NNE,25,5.0,11.0,36,0.00,,,0.00,650,WeatherHawk,2013-01-24 21:43:00,
2013-01-24 14:44:00,70.3,42.1,30.11,NNE,33,4.0,11.0,36,0.00,,,0.00,647,WeatherHawk,2013-01-24 21:44:00,
2013-01-24 14:49:00,70.9,42.6,30.11,NNE,18,6.0,0.0,36,0.00,,,0.00,586,WeatherHawk,2013-01-24 21:49:00,
2013-01-24 14:50:00,70.7,42.4,30.11,NE,46,3.0,10.0,36,0.00,,,0.00,574,WeatherHawk,2013-01-24 21:50:00,
2013-01-24 14:52:00,71.1,42.0,30.11,NNE,30,7.0,10.0,35,0.00,,,0.00,559,WeatherHawk,2013-01-24 21:52:00,
2013-01-24 14:57:00,71.1,42.0,30.12,North,0,3.0,10.0,35,0.00,,,0.00,549,WeatherHawk,2013-01-24 21:57:00,
2013-01-24 14:58:00,71.1,42.0,30.12,North,0,3.0,10.0,35,0.00,,,0.00,549,WeatherHawk,2013-01-24 21:58:00,
2013-01-24 15:03:00,71.1,42.0,30.12,NE,47,7.0,0.0,35,0.00,,,0.00,457,WeatherHawk,2013-01-24 22:03:00,
2013-01-24 15:04:00,71.2,42.2,30.12,NE,42,5.0,0.0,35,0.00,,,0.00,478,WeatherHawk,2013-01-24 22:04:00,
2013-01-24 15:06:00,71.2,42.2,30.12,North,5,4.0,0.0,35,0.00,,,0.00,476,WeatherHawk,2013-01-24 22:06:00,
2013-01-24 15:08:00,71.2,42.2,30.11,ENE,69,6.0,0.0,35,0.00,,,0.00,445,WeatherHawk,2013-01-24 22:08:00,
2013-01-24 15:11:00,71.4,42.3,30.11,East,83,4.0,9.0,35,0.00,,,0.00,452,WeatherHawk,2013-01-24 22:11:00,
2013-01-24 15:13:00,71.4,42.3,30.11,East,89,3.0,9.0,35,0.00,,,0.00,522,WeatherHawk,2013-01-24 22:13:00,
2013-01-24 15:17:00,71.6,43.2,30.12,NE,35,8.0,9.0,36,0.00,,,0.00,353,WeatherHawk,2013-01-24 22:17:00,
2013-01-24 15:18:00,71.6,43.2,30.11,NNE,25,5.0,9.0,36,0.00,,,0.00,432,WeatherHawk,2013-01-24 22:18:00,
2013-01-24 15:20:00,71.4,43.1,30.11,ENE,75,4.0,0.0,36,0.00,,,0.00,333,WeatherHawk,2013-01-24 22:20:00,
2013-01-24 15:22:00,71.4,43.1,30.11,North,3,5.0,0.0,36,0.00,,,0.00,391,WeatherHawk,2013-01-24 22:22:00,
2013-01-24 15:23:00,71.4,43.1,30.11,North,3,5.0,0.0,36,0.00,,,0.00,391,WeatherHawk,2013-01-24 22:23:00,
2013-01-24 15:28:00,71.6,43.2,30.11,NNE,16,7.0,0.0,36,0.00,,,0.00,347,WeatherHawk,2013-01-24 22:28:00,
2013-01-24 15:30:00,71.8,43.4,30.11,NNE,23,8.0,9.0,36,0.00,,,0.00,223,WeatherHawk,2013-01-24 22:30:00,
2013-01-24 15:32:00,71.4,43.1,30.11,NNE,22,7.0,9.0,36,0.00,,,0.00,208,WeatherHawk,2013-01-24 22:32:00,
2013-01-24 15:33:00,71.4,43.1,30.11,NNE,22,7.0,9.0,36,0.00,,,0.00,208,WeatherHawk,2013-01-24 22:33:00,
2013-01-24 15:37:00,71.2,43.6,30.11,North,7,5.0,9.0,37,0.00,,,0.00,212,WeatherHawk,2013-01-24 22:37:00,
2013-01-24 15:38:00,71.2,43.6,30.11,North,7,5.0,9.0,37,0.00,,,0.00,212,WeatherHawk,2013-01-24 22:38:00,
2013-01-24 15:39:00,71.2,43.6,30.11,North,4,6.0,0.0,37,0.00,,,0.00,216,WeatherHawk,2013-01-24 22:39:00,
2013-01-24 15:41:00,71.2,43.6,30.11,North,11,7.0,9.0,37,0.00,,,0.00,243,WeatherHawk,2013-01-24 22:41:00,
2013-01-24 15:43:00,71.1,43.5,30.11,NNE,22,8.0,-999.0,37,0.00,,,0.00,252,WeatherHawk,2013-01-24 22:43:00,
2013-01-24 15:48:00,71.2,43.6,30.10,NNE,30,7.0,-999.0,37,0.00,,,0.00,349,WeatherHawk,2013-01-24 22:48:00,
2013-01-24 15:50:00,71.6,43.9,30.11,NNE,33,5.0,10.0,37,0.00,,,0.00,442,WeatherHawk,2013-01-24 22:50:00,
2013-01-24 15:51:00,71.6,43.9,30.11,NE,36,8.0,10.0,37,0.00,,,0.00,379,WeatherHawk,2013-01-24 22:51:00,
2013-01-24 15:53:00,71.8,44.1,30.11,North,11,8.0,-999.0,37,0.00,,,0.00,276,WeatherHawk,2013-01-24 22:53:00,
2013-01-24 15:57:00,71.6,43.9,30.11,NNE,18,5.0,10.0,37,0.00,,,0.00,165,WeatherHawk,2013-01-24 22:57:00,
2013-01-24 15:58:00,71.6,43.9,30.11,NNE,18,5.0,10.0,37,0.00,,,0.00,165,WeatherHawk,2013-01-24 22:58:00,
2013-01-24 15:59:00,71.4,43.8,30.11,North,5,6.0,9.0,37,0.00,,,0.00,146,WeatherHawk,2013-01-24 22:59:00,
2013-01-24 16:03:00,71.2,44.3,30.11,NNE,31,5.0,9.0,38,0.00,,,0.00,147,WeatherHawk,2013-01-24 23:03:00,
2013-01-24 16:04:00,71.2,44.3,30.10,ENE,63,6.0,9.0,38,0.00,,,0.00,144,WeatherHawk,2013-01-24 23:04:00,
2013-01-24 16:06:00,71.2,44.3,30.10,NE,53,7.0,9.0,38,0.00,,,0.00,149,WeatherHawk,2013-01-24 23:06:00,
2013-01-24 16:07:00,71.2,44.3,30.10,NE,48,6.0,9.0,38,0.00,,,0.00,159,WeatherHawk,2013-01-24 23:07:00,
2013-01-24 16:08:00,71.2,44.3,30.10,NE,39,6.0,9.0,38,0.00,,,0.00,167,WeatherHawk,2013-01-24 23:08:00,
2013-01-24 16:10:00,71.1,44.2,30.10,NE,52,3.0,0.0,38,0.00,,,0.00,188,WeatherHawk,2013-01-24 23:10:00,
2013-01-24 16:11:00,71.1,44.2,30.10,NE,40,6.0,0.0,38,0.00,,,0.00,189,WeatherHawk,2013-01-24 23:11:00,
2013-01-24 16:13:00,71.1,44.2,30.10,NNE,27,6.0,-999.0,38,0.00,,,0.00,190,WeatherHawk,2013-01-24 23:13:00,
2013-01-24 16:14:00,71.2,44.3,30.10,NNE,33,6.0,0.0,38,0.00,,,0.00,208,WeatherHawk,2013-01-24 23:14:00,
2013-01-24 16:16:00,71.2,44.3,30.10,NE,35,6.0,0.0,38,0.00,,,0.00,223,WeatherHawk,2013-01-24 23:16:00,
2013-01-24 16:20:00,71.2,44.3,30.10,North,11,4.0,0.0,38,0.00,,,0.00,221,WeatherHawk,2013-01-24 23:20:00,
2013-01-24 16:21:00,71.2,44.3,30.10,NNE,17,8.0,0.0,38,0.00,,,0.00,219,WeatherHawk,2013-01-24 23:21:00,
2013-01-24 16:22:00,71.4,44.5,30.10,NE,42,6.0,0.0,38,0.00,,,0.00,224,WeatherHawk,2013-01-24 23:22:00,
2013-01-24 16:23:00,71.4,44.5,30.10,NE,42,6.0,0.0,38,0.00,,,0.00,224,WeatherHawk,2013-01-24 23:23:00,
2013-01-24 16:28:00,71.4,44.5,30.10,NNE,33,6.0,-999.0,38,0.00,,,0.00,290,WeatherHawk,2013-01-24 23:28:00,
2013-01-24 16:29:00,71.4,44.5,30.10,NE,45,5.0,0.0,38,0.00,,,0.00,269,WeatherHawk,2013-01-24 23:29:00,
2013-01-24 16:30:00,71.6,44.6,30.10,NNE,30,7.0,8.0,38,0.00,,,0.00,250,WeatherHawk,2013-01-24 23:30:00,
2013-01-24 16:35:00,71.6,44.6,30.10,NE,36,5.0,8.0,38,0.00,,,0.00,254,WeatherHawk,2013-01-24 23:35:00,
2013-01-24 16:36:00,71.6,44.6,30.10,NNE,33,3.0,8.0,38,0.00,,,0.00,276,WeatherHawk,2013-01-24 23:36:00,
2013-01-24 16:38:00,71.6,44.6,30.10,NNE,21,3.0,-999.0,38,0.00,,,0.00,265,WeatherHawk,2013-01-24 23:38:00,
2013-01-24 16:41:00,71.8,44.8,30.10,NNW,346,4.0,7.0,38,0.00,,,0.00,217,WeatherHawk,2013-01-24 23:41:00,
2013-01-24 16:42:00,71.8,44.8,30.10,NNW,345,4.0,7.0,38,0.00,,,0.00,232,WeatherHawk,2013-01-24 23:42:00,
2013-01-24 16:43:00,71.8,44.8,30.10,NNW,345,4.0,7.0,38,0.00,,,0.00,232,WeatherHawk,2013-01-24 23:43:00,
2013-01-24 16:45:00,71.8,44.8,30.10,North,350,3.0,7.0,38,0.00,,,0.00,231,WeatherHawk,2013-01-24 23:45:00,
2013-01-24 16:48:00,72.0,45.0,30.10,North,7,5.0,7.0,38,0.00,,,0.00,223,WeatherHawk,2013-01-24 23:48:00,
2013-01-24 16:51:00,71.8,44.8,30.10,North,349,4.0,0.0,38,0.00,,,0.00,73,WeatherHawk,2013-01-24 23:51:00,
2013-01-24 16:52:00,71.8,44.8,30.10,North,356,5.0,0.0,38,0.00,,,0.00,69,WeatherHawk,2013-01-24 23:52:00,
2013-01-24 16:53:00,71.6,45.3,30.10,NNE,33,5.0,0.0,39,0.00,,,0.00,70,WeatherHawk,2013-01-24 23:53:00,
2013-01-24 16:57:00,71.4,45.2,30.10,North,357,3.0,0.0,39,0.00,,,0.00,69,WeatherHawk,2013-01-24 23:57:00,
2013-01-24 16:58:00,71.4,45.2,30.10,North,10,4.0,0.0,39,0.00,,,0.00,70,WeatherHawk,2013-01-24 23:58:00,
2013-01-24 16:59:00,71.4,45.2,30.10,NNE,12,4.0,0.0,39,0.00,,,0.00,90,WeatherHawk,2013-01-24 23:59:00,
2013-01-24 17:03:00,71.2,45.0,30.11,North,354,4.0,0.0,39,0.00,,,0.00,116,WeatherHawk,2013-01-25 00:03:00,
2013-01-24 17:05:00,71.2,45.0,30.11,North,352,3.0,0.0,39,0.00,,,0.00,110,WeatherHawk,2013-01-25 00:05:00,
2013-01-24 17:06:00,71.2,45.0,30.11,North,5,3.0,0.0,39,0.00,,,0.00,104,WeatherHawk,2013-01-25 00:06:00,
2013-01-24 17:07:00,71.2,45.0,30.11,NNE,30,2.0,0.0,39,0.00,,,0.00,139,WeatherHawk,2013-01-25 00:07:00,
2013-01-24 17:08:00,71.2,45.0,30.11,NE,41,3.0,0.0,39,0.00,,,0.00,142,WeatherHawk,2013-01-25 00:08:00,
2013-01-24 17:10:00,71.2,45.0,30.11,NE,53,4.0,0.0,39,0.00,,,0.00,127,WeatherHawk,2013-01-25 00:10:00,
2013-01-24 17:14:00,71.2,45.0,30.11,NE,41,3.0,0.0,39,0.00,,,0.00,127,WeatherHawk,2013-01-25 00:14:00,
2013-01-24 17:15:00,71.4,44.5,30.12,NE,47,4.0,0.0,38,0.00,,,0.00,116,WeatherHawk,2013-01-25 00:15:00,
2013-01-24 17:18:00,71.2,45.0,30.12,NE,45,4.0,0.0,39,0.00,,,0.00,77,WeatherHawk,2013-01-25 00:18:00,
2013-01-24 17:22:00,71.2,45.0,30.11,ENE,76,6.0,0.0,39,0.00,,,0.00,82,WeatherHawk,2013-01-25 00:22:00,
2013-01-24 17:24:00,71.1,44.8,30.11,ENE,77,7.0,0.0,39,0.00,,,0.00,77,WeatherHawk,2013-01-25 00:24:00,
2013-01-24 17:28:00,70.9,45.3,30.11,East,81,5.0,0.0,40,0.00,,,0.00,64,WeatherHawk,2013-01-25 00:28:00,
2013-01-24 17:30:00,70.7,45.8,30.12,East,92,8.0,0.0,41,0.00,,,0.00,45,WeatherHawk,2013-01-25 00:30:00,
2013-01-24 17:32:00,70.5,45.7,30.12,ENE,76,7.0,0.0,41,0.00,,,0.00,39,WeatherHawk,2013-01-25 00:32:00,
2013-01-24 17:33:00,70.5,45.7,30.12,ENE,76,7.0,-999.0,41,0.00,,,0.00,39,WeatherHawk,2013-01-25 00:33:00,
2013-01-24 17:38:00,70.0,45.8,30.12,East,80,9.0,0.0,42,0.00,,,0.00,30,WeatherHawk,2013-01-25 00:38:00,
2013-01-24 17:39:00,69.8,45.7,30.12,East,80,6.0,0.0,42,0.00,,,0.00,27,WeatherHawk,2013-01-25 00:39:00,
2013-01-24 17:43:00,69.6,45.5,30.12,ENE,71,7.0,-999.0,42,0.00,,,0.00,25,WeatherHawk,2013-01-25 00:43:00,
2013-01-24 17:44:00,69.4,45.3,30.12,ENE,61,8.0,9.0,42,0.00,,,0.00,23,WeatherHawk,2013-01-25 00:44:00,
2013-01-24 17:45:00,69.4,45.3,30.12,ENE,66,8.0,9.0,42,0.00,,,0.00,22,WeatherHawk,2013-01-25 00:45:00,
2013-01-24 17:48:00,69.3,45.2,30.12,ENE,73,8.0,-999.0,42,0.00,,,0.00,18,WeatherHawk,2013-01-25 00:48:00,
2013-01-24 17:50:00,69.1,45.0,30.12,ENE,73,8.0,0.0,42,0.00,,,0.00,15,WeatherHawk,2013-01-25 00:50:00,
2013-01-24 17:52:00,69.1,45.0,30.12,ENE,72,8.0,0.0,42,0.00,,,0.00,13,WeatherHawk,2013-01-25 00:52:00,
2013-01-24 17:53:00,68.9,44.9,30.12,ENE,73,9.0,0.0,42,0.00,,,0.00,13,WeatherHawk,2013-01-25 00:53:00,
2013-01-24 17:57:00,68.7,45.3,30.13,ENE,71,6.0,0.0,43,0.00,,,0.00,10,WeatherHawk,2013-01-25 00:57:00,
2013-01-24 17:58:00,68.7,45.3,30.13,ENE,71,6.0,0.0,43,0.00,,,0.00,10,WeatherHawk,2013-01-25 00:58:00,
2013-01-24 17:59:00,68.5,45.1,30.13,ENE,75,6.0,0.0,43,0.00,,,0.00,6,WeatherHawk,2013-01-25 00:59:00,
2013-01-24 18:00:00,68.5,45.1,30.13,ENE,75,8.0,0.0,43,0.00,,,0.00,4,WeatherHawk,2013-01-25 01:00:00,
2013-01-24 18:03:00,68.4,45.0,30.13,ENE,71,8.0,0.0,43,0.00,,,0.00,4,WeatherHawk,2013-01-25 01:03:00,
2013-01-24 18:06:00,68.2,44.8,30.13,ENE,67,9.0,0.0,43,0.00,,,0.00,2,WeatherHawk,2013-01-25 01:06:00,
2013-01-24 18:07:00,68.2,44.2,30.13,ENE,63,8.0,0.0,42,0.00,,,0.00,2,WeatherHawk,2013-01-25 01:07:00,
2013-01-24 18:08:00,68.2,44.8,30.13,ENE,65,8.0,0.0,43,0.00,,,0.00,2,WeatherHawk,2013-01-25 01:08:00,
2013-01-24 18:11:00,68.2,44.8,30.14,ENE,60,9.0,0.0,43,0.00,,,0.00,1,WeatherHawk,2013-01-25 01:11:00,
2013-01-24 18:13:00,68.2,44.8,30.14,ENE,66,6.0,0.0,43,0.00,,,0.00,0,WeatherHawk,2013-01-25 01:13:00,
2013-01-24 18:15:00,68.0,44.7,30.14,NE,53,6.0,0.0,43,0.00,,,0.00,0,WeatherHawk,2013-01-25 01:15:00,
2013-01-24 18:17:00,68.0,44.7,30.14,NE,53,6.0,0.0,43,0.00,,,0.00,1,WeatherHawk,2013-01-25 01:17:00,
2013-01-24 18:18:00,68.0,44.7,30.14,NE,48,8.0,0.0,43,0.00,,,0.00,0,WeatherHawk,2013-01-25 01:18:00,
2013-01-24 18:19:00,68.0,44.7,30.14,NE,48,7.0,0.0,43,0.00,,,0.00,0,WeatherHawk,2013-01-25 01:19:00,
2013-01-24 18:23:00,67.8,44.5,30.14,NE,50,6.0,0.0,43,0.00,,,0.00,1,WeatherHawk,2013-01-25 01:23:00,
2013-01-24 18:25:00,67.8,44.5,30.14,NE,53,6.0,0.0,43,0.00,,,0.00,0,WeatherHawk,2013-01-25 01:25:00,
2013-01-24 18:27:00,67.8,44.5,30.14,ENE,59,8.0,0.0,43,0.00,,,0.00,0,WeatherHawk,2013-01-25 01:27:00,
2013-01-24 18:28:00,67.8,44.5,30.14,ENE,57,8.0,0.0,43,0.00,,,0.00,0,WeatherHawk,2013-01-25 01:28:00,
2013-01-24 18:29:00,67.8,44.5,30.14,ENE,58,6.0,0.0,43,0.00,,,0.00,0,WeatherHawk,2013-01-25 01:29:00,
2013-01-24 18:33:00,67.6,44.9,30.14,ENE,57,7.0,-999.0,44,0.00,,,0.00,0,WeatherHawk,2013-01-25 01:33:00,
2013-01-24 18:34:00,67.6,44.9,30.14,NE,55,8.0,0.0,44,0.00,,,0.00,0,WeatherHawk,2013-01-25 01:34:00,
2013-01-24 18:35:00,67.6,44.9,30.14,ENE,58,8.0,0.0,44,0.00,,,0.00,0,WeatherHawk,2013-01-25 01:35:00,
2013-01-24 18:38:00,67.5,44.8,30.14,ENE,61,9.0,0.0,44,0.00,,,0.00,0,WeatherHawk,2013-01-25 01:38:00,
2013-01-24 18:39:00,67.5,44.8,30.13,NE,55,8.0,0.0,44,0.00,,,0.00,0,WeatherHawk,2013-01-25 01:39:00,
2013-01-24 18:41:00,67.5,44.8,30.13,NE,51,8.0,0.0,44,0.00,,,0.00,0,WeatherHawk,2013-01-25 01:41:00,
2013-01-24 18:42:00,67.5,44.8,30.13,NE,51,8.0,0.0,44,0.00,,,0.00,0,WeatherHawk,2013-01-25 01:42:00,
2013-01-24 18:45:00,67.5,44.8,30.14,NE,54,8.0,0.0,44,0.00,,,0.00,0,WeatherHawk,2013-01-25 01:45:00,
2013-01-24 18:47:00,67.5,44.8,30.13,NE,50,9.0,0.0,44,0.00,,,0.00,0,WeatherHawk,2013-01-25 01:47:00,
2013-01-24 18:50:00,67.5,44.8,30.13,NE,50,6.0,0.0,44,0.00,,,0.00,0,WeatherHawk,2013-01-25 01:50:00,
2013-01-24 18:53:00,67.3,44.6,30.13,NE,51,8.0,0.0,44,0.00,,,0.00,0,WeatherHawk,2013-01-25 01:53:00,
2013-01-24 18:55:00,67.3,44.6,30.13,NE,47,8.0,0.0,44,0.00,,,0.00,0,WeatherHawk,2013-01-25 01:55:00,
2013-01-24 18:58:00,67.3,44.6,30.13,NE,46,7.0,0.0,44,0.00,,,0.00,0,WeatherHawk,2013-01-25 01:58:00,
2013-01-24 19:00:00,67.1,45.0,30.13,NE,42,6.0,0.0,45,0.00,,,0.00,0,WeatherHawk,2013-01-25 02:00:00,
2013-01-24 19:01:00,66.9,44.9,30.13,NE,48,6.0,0.0,45,0.00,,,0.00,0,WeatherHawk,2013-01-25 02:01:00,
2013-01-24 19:03:00,66.7,44.7,30.13,NE,56,6.0,-999.0,45,0.00,,,0.00,0,WeatherHawk,2013-01-25 02:03:00,
2013-01-24 19:07:00,66.6,44.6,30.13,ENE,67,5.0,0.0,45,0.00,,,0.00,0,WeatherHawk,2013-01-25 02:07:00,
2013-01-24 19:09:00,66.6,44.6,30.14,East,82,6.0,0.0,45,0.00,,,0.00,0,WeatherHawk,2013-01-25 02:09:00,
2013-01-24 19:13:00,66.7,44.7,30.14,East,84,6.0,-999.0,45,0.00,,,0.00,0,WeatherHawk,2013-01-25 02:13:00,
2013-01-24 19:17:00,66.4,45.0,30.14,East,83,6.0,0.0,46,0.00,,,0.00,0,WeatherHawk,2013-01-25 02:17:00,
2013-01-24 19:18:00,66.2,44.8,30.14,East,82,5.0,0.0,46,0.00,,,0.00,0,WeatherHawk,2013-01-25 02:18:00,
2013-01-24 19:19:00,66.2,44.8,30.14,East,85,6.0,7.0,46,0.00,,,0.00,0,WeatherHawk,2013-01-25 02:19:00,
2013-01-24 19:22:00,66.0,45.2,30.14,East,81,6.0,7.0,47,0.00,,,0.00,0,WeatherHawk,2013-01-25 02:22:00,
2013-01-24 19:25:00,65.7,44.9,30.14,East,87,5.0,7.0,47,0.00,,,0.00,0,WeatherHawk,2013-01-25 02:25:00,
2013-01-24 19:28:00,65.5,45.3,30.14,East,90,5.0,7.0,48,0.00,,,0.00,0,WeatherHawk,2013-01-25 02:28:00,
2013-01-24 19:33:00,65.3,45.1,30.14,East,86,4.0,6.0,48,0.00,,,0.00,0,WeatherHawk,2013-01-25 02:33:00,
2013-01-24 19:34:00,65.3,45.1,30.14,ENE,77,4.0,6.0,48,0.00,,,0.00,0,WeatherHawk,2013-01-25 02:34:00,
2013-01-24 19:38:00,65.1,44.9,30.14,ENE,66,5.0,6.0,48,0.00,,,0.00,0,WeatherHawk,2013-01-25 02:38:00,
2013-01-24 19:39:00,65.1,44.9,30.14,ENE,67,5.0,5.0,48,0.00,,,0.00,0,WeatherHawk,2013-01-25 02:39:00,
2013-01-24 19:42:00,65.1,45.5,30.14,ENE,66,6.0,6.0,49,0.00,,,0.00,0,WeatherHawk,2013-01-25 02:42:00,
2013-01-24 19:43:00,65.1,45.5,30.14,ENE,66,6.0,-999.0,49,0.00,,,0.00,0,WeatherHawk,2013-01-25 02:43:00,
2013-01-24 19:44:00,65.3,45.6,30.14,ENE,62,5.0,5.0,49,0.00,,,0.00,0,WeatherHawk,2013-01-25 02:44:00,
2013-01-24 19:47:00,65.3,45.1,30.14,ENE,59,4.0,5.0,48,0.00,,,0.00,0,WeatherHawk,2013-01-25 02:47:00,
2013-01-24 19:48:00,65.3,45.1,30.14,ENE,59,4.0,-999.0,48,0.00,,,0.00,0,WeatherHawk,2013-01-25 02:48:00,
2013-01-24 19:50:00,65.1,45.5,30.15,ENE,62,4.0,7.0,49,0.00,,,0.00,0,WeatherHawk,2013-01-25 02:50:00,
2013-01-24 19:54:00,65.1,45.5,30.15,ENE,63,5.0,7.0,49,0.00,,,0.00,0,WeatherHawk,2013-01-25 02:54:00,
2013-01-24 19:56:00,65.3,45.1,30.15,ENE,63,5.0,7.0,48,0.00,,,0.00,0,WeatherHawk,2013-01-25 02:56:00,
2013-01-24 19:57:00,65.5,45.3,30.15,ENE,61,6.0,7.0,48,0.00,,,0.00,0,WeatherHawk,2013-01-25 02:57:00,
2013-01-24 19:58:00,65.5,45.3,30.15,ENE,61,6.0,7.0,48,0.00,,,0.00,0,WeatherHawk,2013-01-25 02:58:00,
2013-01-24 20:00:00,65.5,45.3,30.15,NE,48,4.0,0.0,48,0.00,,,0.00,0,WeatherHawk,2013-01-25 03:00:00,
2013-01-24 20:03:00,65.5,45.3,30.15,NE,55,5.0,0.0,48,0.00,,,0.00,0,WeatherHawk,2013-01-25 03:03:00,
2013-01-24 20:06:00,65.5,45.3,30.14,ENE,57,6.0,0.0,48,0.00,,,0.00,0,WeatherHawk,2013-01-25 03:06:00,
2013-01-24 20:08:00,65.3,45.1,30.14,ENE,64,6.0,0.0,48,0.00,,,0.00,0,WeatherHawk,2013-01-25 03:08:00,
2013-01-24 20:11:00,65.7,44.9,30.14,NE,54,7.0,0.0,47,0.00,,,0.00,0,WeatherHawk,2013-01-25 03:11:00,
2013-01-24 20:13:00,65.7,44.9,30.14,ENE,61,6.0,0.0,47,0.00,,,0.00,1,WeatherHawk,2013-01-25 03:13:00,
2013-01-24 20:15:00,65.7,44.9,30.14,ENE,63,6.0,0.0,47,0.00,,,0.00,0,WeatherHawk,2013-01-25 03:15:00,
2013-01-24 20:18:00,65.8,45.0,30.14,ENE,66,6.0,-999.0,47,0.00,,,0.00,0,WeatherHawk,2013-01-25 03:18:00,
2013-01-24 20:23:00,65.8,44.5,30.14,ENE,76,7.0,0.0,46,0.00,,,0.00,0,WeatherHawk,2013-01-25 03:23:00,
2013-01-24 20:24:00,65.8,44.5,30.14,ENE,70,7.0,0.0,46,0.00,,,0.00,0,WeatherHawk,2013-01-25 03:24:00,
2013-01-24 20:25:00,65.8,44.5,30.14,ENE,70,7.0,0.0,46,0.00,,,0.00,0,WeatherHawk,2013-01-25 03:25:00,
2013-01-24 20:26:00,65.8,45.0,30.14,ENE,63,6.0,0.0,47,0.00,,,0.00,0,WeatherHawk,2013-01-25 03:26:00,
2013-01-24 20:31:00,65.7,44.9,30.14,ENE,61,8.0,0.0,47,0.00,,,0.00,0,WeatherHawk,2013-01-25 03:31:00,
2013-01-24 20:34:00,65.5,44.7,30.14,ENE,59,8.0,0.0,47,0.00,,,0.00,0,WeatherHawk,2013-01-25 03:34:00,
2013-01-24 20:35:00,65.5,44.7,30.14,ENE,62,8.0,0.0,47,0.00,,,0.00,0,WeatherHawk,2013-01-25 03:35:00,
2013-01-24 20:37:00,65.5,44.7,30.14,ENE,72,8.0,0.0,47,0.00,,,0.00,0,WeatherHawk,2013-01-25 03:37:00,
2013-01-24 20:41:00,65.5,44.7,30.14,ENE,73,10.0,0.0,47,0.00,,,0.00,0,WeatherHawk,2013-01-25 03:41:00,
2013-01-24 20:42:00,65.5,44.7,30.14,ENE,76,9.0,0.0,47,0.00,,,0.00,1,WeatherHawk,2013-01-25 03:42:00,
2013-01-24 20:43:00,65.5,44.7,30.14,ENE,77,8.0,0.0,47,0.00,,,0.00,0,WeatherHawk,2013-01-25 03:43:00,
2013-01-24 20:48:00,65.1,44.9,30.14,East,85,8.0,-999.0,48,0.00,,,0.00,0,WeatherHawk,2013-01-25 03:48:00,
2013-01-24 20:51:00,64.8,45.1,30.14,East,83,6.0,0.0,49,0.00,,,0.00,0,WeatherHawk,2013-01-25 03:51:00,
2013-01-24 20:53:00,64.8,45.1,30.14,East,82,7.0,-999.0,49,0.00,,,0.00,0,WeatherHawk,2013-01-25 03:53:00,
2013-01-24 20:56:00,64.8,45.1,30.14,East,79,6.0,0.0,49,0.00,,,0.00,0,WeatherHawk,2013-01-25 03:56:00,
2013-01-24 20:57:00,64.8,45.1,30.13,East,79,6.0,0.0,49,0.00,,,0.00,0,WeatherHawk,2013-01-25 03:57:00,
2013-01-24 20:58:00,64.8,45.1,30.13,ENE,76,6.0,0.0,49,0.00,,,0.00,0,WeatherHawk,2013-01-25 03:58:00,
2013-01-24 21:00:00,64.6,45.0,30.13,ENE,75,6.0,0.0,49,0.00,,,0.00,0,WeatherHawk,2013-01-25 04:00:00,
2013-01-24 21:02:00,64.6,45.0,30.13,ENE,78,7.0,0.0,49,0.00,,,0.00,0,WeatherHawk,2013-01-25 04:02:00,
2013-01-24 21:03:00,64.6,45.5,30.13,East,81,7.0,0.0,50,0.00,,,0.00,0,WeatherHawk,2013-01-25 04:03:00,
2013-01-24 21:05:00,64.4,45.3,30.13,East,82,7.0,0.0,50,0.00,,,0.00,0,WeatherHawk,2013-01-25 04:05:00,
2013-01-24 21:08:00,64.2,45.2,30.13,East,81,6.0,-999.0,50,0.00,,,0.00,0,WeatherHawk,2013-01-25 04:08:00,
2013-01-24 21:09:00,64.2,45.2,30.13,ENE,75,7.0,0.0,50,0.00,,,0.00,0,WeatherHawk,2013-01-25 04:09:00,
2013-01-24 21:13:00,64.0,45.5,30.13,ENE,67,6.0,0.0,51,0.00,,,0.00,0,WeatherHawk,2013-01-25 04:13:00,
2013-01-24 21:14:00,64.0,45.5,30.13,ENE,70,5.0,0.0,51,0.00,,,0.00,0,WeatherHawk,2013-01-25 04:14:00,
2013-01-24 21:18:00,63.9,45.4,30.14,East,79,5.0,-999.0,51,0.00,,,0.00,0,WeatherHawk,2013-01-25 04:18:00,
2013-01-24 21:23:00,63.7,45.2,30.14,East,93,4.0,7.0,51,0.00,,,0.00,0,WeatherHawk,2013-01-25 04:23:00,
2013-01-24 21:24:00,63.7,45.2,30.14,East,85,4.0,7.0,51,0.00,,,0.00,0,WeatherHawk,2013-01-25 04:24:00,
2013-01-24 21:28:00,63.5,45.6,30.14,East,79,4.0,7.0,52,0.00,,,0.00,0,WeatherHawk,2013-01-25 04:28:00,
2013-01-24 21:29:00,63.5,45.6,30.14,ENE,76,4.0,0.0,52,0.00,,,0.00,0,WeatherHawk,2013-01-25 04:29:00,
2013-01-24 21:30:00,63.5,45.6,30.14,ENE,76,4.0,0.0,52,0.00,,,0.00,0,WeatherHawk,2013-01-25 04:30:00,
2013-01-24 21:31:00,63.5,45.6,30.14,ENE,74,3.0,0.0,52,0.00,,,0.00,0,WeatherHawk,2013-01-25 04:31:00,
2013-01-24 21:33:00,63.3,45.4,30.14,ENE,74,2.0,0.0,52,0.00,,,0.00,0,WeatherHawk,2013-01-25 04:33:00,
2013-01-24 21:38:00,63.3,45.4,30.15,NW,325,1.0,0.0,52,0.00,,,0.00,0,WeatherHawk,2013-01-25 04:38:00,
2013-01-24 21:39:00,63.3,45.4,30.15,West,266,4.0,0.0,52,0.00,,,0.00,0,WeatherHawk,2013-01-25 04:39:00,
2013-01-24 21:43:00,62.2,46.8,30.16,WNW,284,5.0,0.0,57,0.00,,,0.00,0,WeatherHawk,2013-01-25 04:43:00,
2013-01-24 21:48:00,62.1,47.1,30.15,North,356,3.0,0.0,58,0.00,,,0.00,0,WeatherHawk,2013-01-25 04:48:00,
2013-01-24 21:52:00,62.1,47.1,30.14,NNW,348,6.0,6.0,58,0.00,,,0.00,1,WeatherHawk,2013-01-25 04:52:00,
2013-01-24 21:53:00,62.1,47.1,30.14,NNW,342,4.0,6.0,58,0.00,,,0.00,0,WeatherHawk,2013-01-25 04:53:00,
2013-01-24 21:55:00,61.9,47.4,30.15,North,355,4.0,6.0,59,0.00,,,0.00,0,WeatherHawk,2013-01-25 04:55:00,
2013-01-24 21:57:00,61.7,47.2,30.15,North,11,2.0,6.0,59,0.00,,,0.00,0,WeatherHawk,2013-01-25 04:57:00,
2013-01-24 21:58:00,61.7,47.2,30.15,North,11,2.0,-999.0,59,0.00,,,0.00,0,WeatherHawk,2013-01-25 04:58:00,
2013-01-24 22:01:00,61.7,47.2,30.15,North,350,3.0,0.0,59,0.00,,,0.00,0,WeatherHawk,2013-01-25 05:01:00,
2013-01-24 22:03:00,61.7,47.2,30.15,NNW,344,3.0,0.0,59,0.00,,,0.00,0,WeatherHawk,2013-01-25 05:03:00,
2013-01-24 22:05:00,61.9,47.4,30.15,NNW,334,3.0,0.0,59,0.00,,,0.00,0,WeatherHawk,2013-01-25 05:05:00,
2013-01-24 22:07:00,61.7,47.2,30.15,NNW,328,4.0,0.0,59,0.00,,,0.00,0,WeatherHawk,2013-01-25 05:07:00,
2013-01-24 22:08:00,61.7,47.2,30.15,NW,326,3.0,0.0,59,0.00,,,0.00,0,WeatherHawk,2013-01-25 05:08:00,
2013-01-24 22:09:00,61.7,47.2,30.15,NNW,329,4.0,0.0,59,0.00,,,0.00,0,WeatherHawk,2013-01-25 05:09:00,
2013-01-24 22:10:00,61.7,47.2,30.15,NNW,331,4.0,0.0,59,0.00,,,0.00,0,WeatherHawk,2013-01-25 05:10:00,
2013-01-24 22:13:00,61.7,47.2,30.15,NNW,331,4.0,0.0,59,0.00,,,0.00,0,WeatherHawk,2013-01-25 05:13:00,
2013-01-24 22:15:00,61.7,47.2,30.15,NNW,338,4.0,0.0,59,0.00,,,0.00,0,WeatherHawk,2013-01-25 05:15:00,
2013-01-24 22:17:00,61.7,47.2,30.15,NNW,340,4.0,0.0,59,0.00,,,0.00,0,WeatherHawk,2013-01-25 05:17:00,
2013-01-24 22:18:00,61.7,47.2,30.15,NNW,341,4.0,0.0,59,0.00,,,0.00,0,WeatherHawk,2013-01-25 05:18:00,
2013-01-24 22:21:00,61.5,47.5,30.15,WNW,297,3.0,0.0,60,0.00,,,0.00,0,WeatherHawk,2013-01-25 05:21:00,
2013-01-24 22:23:00,61.3,47.3,30.15,WNW,290,3.0,0.0,60,0.00,,,0.00,0,WeatherHawk,2013-01-25 05:23:00,
2013-01-24 22:24:00,61.3,47.8,30.15,NW,308,3.0,0.0,61,0.00,,,0.00,0,WeatherHawk,2013-01-25 05:24:00,
2013-01-24 22:28:00,61.2,47.6,30.15,NNW,330,4.0,0.0,61,0.00,,,0.00,1,WeatherHawk,2013-01-25 05:28:00,
2013-01-24 22:32:00,61.2,47.6,30.15,NNW,338,3.0,0.0,61,0.00,,,0.00,0,WeatherHawk,2013-01-25 05:32:00,
2013-01-24 22:33:00,61.2,47.6,30.15,NNW,338,3.0,-999.0,61,0.00,,,0.00,0,WeatherHawk,2013-01-25 05:33:00,
2013-01-24 22:35:00,61.2,47.6,30.15,NNW,333,3.0,0.0,61,0.00,,,0.00,0,WeatherHawk,2013-01-25 05:35:00,
2013-01-24 22:40:00,60.8,47.7,30.15,NW,321,3.0,0.0,62,0.00,,,0.00,0,WeatherHawk,2013-01-25 05:40:00,
2013-01-24 22:41:00,60.8,47.7,30.15,NW,319,3.0,0.0,62,0.00,,,0.00,0,WeatherHawk,2013-01-25 05:41:00,
2013-01-24 22:42:00,60.8,47.7,30.15,NW,308,3.0,0.0,62,0.00,,,0.00,0,WeatherHawk,2013-01-25 05:42:00,
2013-01-24 22:44:00,60.8,47.7,30.15,WNW,293,4.0,0.0,62,0.00,,,0.00,0,WeatherHawk,2013-01-25 05:44:00,
2013-01-24 22:48:00,60.4,48.2,30.15,WNW,292,3.0,0.0,64,0.00,,,0.00,0,WeatherHawk,2013-01-25 05:48:00,
2013-01-24 22:49:00,59.9,48.5,30.15,NW,315,3.0,0.0,66,0.00,,,0.00,0,WeatherHawk,2013-01-25 05:49:00,
2013-01-24 22:53:00,59.9,48.5,30.15,NW,325,4.0,-999.0,66,0.00,,,0.00,0,WeatherHawk,2013-01-25 05:53:00,
2013-01-24 22:55:00,59.9,47.7,30.15,NNW,329,4.0,0.0,64,0.00,,,0.00,0,WeatherHawk,2013-01-25 05:55:00,
2013-01-24 22:58:00,60.1,47.9,30.15,NW,325,4.0,0.0,64,0.00,,,0.00,0,WeatherHawk,2013-01-25 05:58:00,
2013-01-24 22:59:00,60.3,47.6,30.15,NW,325,4.0,0.0,63,0.00,,,0.00,0,WeatherHawk,2013-01-25 05:59:00,
2013-01-24 23:00:00,60.3,47.6,30.15,NNW,328,3.0,0.0,63,0.00,,,0.00,0,WeatherHawk,2013-01-25 06:00:00,
2013-01-24 23:03:00,60.4,47.8,30.15,NNW,329,3.0,0.0,63,0.00,,,0.00,0,WeatherHawk,2013-01-25 06:03:00,
2013-01-24 23:04:00,60.4,47.4,30.15,NW,322,3.0,0.0,62,0.00,,,0.00,0,WeatherHawk,2013-01-25 06:04:00,
2013-01-24 23:07:00,60.4,47.4,30.15,NW,325,4.0,0.0,62,0.00,,,0.00,0,WeatherHawk,2013-01-25 06:07:00,
2013-01-24 23:08:00,60.4,47.4,30.15,NW,325,4.0,0.0,62,0.00,,,0.00,0,WeatherHawk,2013-01-25 06:08:00,
2013-01-24 23:11:00,60.4,47.4,30.15,NW,321,4.0,4.0,62,0.00,,,0.00,0,WeatherHawk,2013-01-25 06:11:00,
2013-01-24 23:13:00,60.4,46.9,30.15,NW,323,5.0,5.0,61,0.00,,,0.00,0,WeatherHawk,2013-01-25 06:13:00,
2013-01-24 23:16:00,60.6,47.1,30.15,NNW,329,5.0,5.0,61,0.00,,,0.00,0,WeatherHawk,2013-01-25 06:16:00,
2013-01-24 23:18:00,60.6,47.1,30.15,NNW,334,5.0,5.0,61,0.00,,,0.00,0,WeatherHawk,2013-01-25 06:18:00,
2013-01-24 23:21:00,60.6,47.1,30.15,NNW,344,5.0,0.0,61,0.00,,,0.00,0,WeatherHawk,2013-01-25 06:21:00,
2013-01-24 23:23:00,60.6,46.7,30.15,North,350,5.0,0.0,60,0.00,,,0.00,0,WeatherHawk,2013-01-25 06:23:00,
2013-01-24 23:24:00,60.4,46.5,30.15,North,351,5.0,0.0,60,0.00,,,0.00,0,WeatherHawk,2013-01-25 06:24:00,
2013-01-24 23:26:00,60.4,46.5,30.15,North,352,5.0,0.0,60,0.00,,,0.00,0,WeatherHawk,2013-01-25 06:26:00,
2013-01-24 23:28:00,60.6,46.7,30.15,North,349,5.0,0.0,60,0.00,,,0.00,1,WeatherHawk,2013-01-25 06:28:00,
2013-01-24 23:32:00,60.8,46.4,30.15,NNW,345,5.0,0.0,59,0.00,,,0.00,0,WeatherHawk,2013-01-25 06:32:00,
2013-01-24 23:33:00,60.8,46.4,30.15,NNW,342,6.0,0.0,59,0.00,,,0.00,0,WeatherHawk,2013-01-25 06:33:00,
2013-01-24 23:34:00,60.8,46.4,30.15,NNW,341,5.0,0.0,59,0.00,,,0.00,0,WeatherHawk,2013-01-25 06:34:00,
2013-01-24 23:37:00,60.6,46.7,30.15,NNW,348,6.0,0.0,60,0.00,,,0.00,0,WeatherHawk,2013-01-25 06:37:00,
2013-01-24 23:38:00,60.6,46.7,30.15,North,350,5.0,0.0,60,0.00,,,0.00,0,WeatherHawk,2013-01-25 06:38:00,
2013-01-24 23:40:00,60.6,46.7,30.15,North,353,5.0,0.0,60,0.00,,,0.00,0,WeatherHawk,2013-01-25 06:40:00,
2013-01-24 23:43:00,60.6,46.2,30.15,North,354,5.0,0.0,59,0.00,,,0.00,0,WeatherHawk,2013-01-25 06:43:00,
2013-01-24 23:45:00,60.6,46.7,30.15,North,352,4.0,0.0,60,0.00,,,0.00,0,WeatherHawk,2013-01-25 06:45:00,
2013-01-24 23:47:00,60.6,46.7,30.15,NNW,348,5.0,0.0,60,0.00,,,0.00,0,WeatherHawk,2013-01-25 06:47:00,
2013-01-24 23:48:00,60.6,46.7,30.15,NNW,347,5.0,0.0,60,0.00,,,0.00,0,WeatherHawk,2013-01-25 06:48:00,
2013-01-24 23:50:00,60.6,46.7,30.15,NNW,348,5.0,0.0,60,0.00,,,0.00,0,WeatherHawk,2013-01-25 06:50:00,
2013-01-24 23:53:00,60.6,46.2,30.15,North,352,6.0,0.0,59,0.00,,,0.00,0,WeatherHawk,2013-01-25 06:53:00,
2013-01-24 23:55:00,60.6,46.2,30.14,North,349,6.0,0.0,59,0.00,,,0.00,1,WeatherHawk,2013-01-25 06:55:00,
2013-01-24 23:57:00,60.6,46.2,30.14,North,350,6.0,0.0,59,0.00,,,0.00,0,WeatherHawk,2013-01-25 06:57:00,
2013-01-24 23:59:00,60.6,46.2,30.14,North,354,6.0,0.0,59,0.00,,,0.00,0,WeatherHawk,2013-01-25 06:59:00,